Wetterdaten: Montag, 26.06.2017
Datum Zeit Temp. Aussen Temp. o. S. +5cm Feuchte Auss BlattFeu 1 Luftdruck Regen Sonnenschein Regendauer Solar Windben Empfang
26.06.2017 00:00 18,1 C 17,2 C 16,1 C 77 % 0 lf 1011,3 hPa 0,0 l/m 0 min 0 min 0 W/m 20,9 km/h (4 Bft) 97,96 %
26.06.2017 00:02 18,0 C 17,2 C 16,1 C 77 % 0 lf 1011,4 hPa 0,0 l/m 0 min 0 min 5 W/m 14,6 km/h (3 Bft) 100,00 %
26.06.2017 00:04 17,9 C 17,2 C 15,6 C 77 % 0 lf 1011,4 hPa 0,0 l/m 0 min 0 min 0 W/m 12,6 km/h (3 Bft) 90,00 %
26.06.2017 00:06 17,9 C 17,2 C 15,6 C 78 % 0 lf 1011,3 hPa 0,0 l/m 0 min 0 min 5 W/m 12,6 km/h (3 Bft) 97,87 %
26.06.2017 00:10 17,9 C 17,2 C 15,6 C 78 % 0 lf 1011,3 hPa 0,0 l/m 0 min 0 min 5 W/m 14,6 km/h (3 Bft) 95,92 %
26.06.2017 00:12 17,8 C 17,2 C 15,6 C 78 % 0 lf 1011,2 hPa 0,0 l/m 0 min 0 min 5 W/m 14,6 km/h (3 Bft) 94,59 %
26.06.2017 00:14 17,8 C 17,2 C 15,6 C 78 % 0 lf 1011,3 hPa 0,0 l/m 0 min 0 min 0 W/m 14,6 km/h (3 Bft) 93,48 %
26.06.2017 00:16 17,8 C 16,7 C 15,6 C 78 % 0 lf 1011,2 hPa 0,0 l/m 0 min 0 min 0 W/m 12,6 km/h (3 Bft) 95,74 %
26.06.2017 00:18 17,7 C 16,7 C 15,6 C 79 % 0 lf 1011,3 hPa 0,0 l/m 0 min 0 min 0 W/m 10,5 km/h (2 Bft) 95,74 %
26.06.2017 00:20 17,7 C 16,7 C 15,6 C 79 % 0 lf 1011,2 hPa 0,0 l/m 0 min 0 min 0 W/m 12,6 km/h (3 Bft) 100,00 %
26.06.2017 00:22 17,7 C 16,7 C 15,6 C 79 % 0 lf 1011,2 hPa 0,0 l/m 0 min 0 min 0 W/m 12,6 km/h (3 Bft) 100,00 %
26.06.2017 00:24 17,6 C 16,7 C 15,6 C 79 % 0 lf 1011,2 hPa 0,0 l/m 0 min 0 min 3 W/m 10,5 km/h (2 Bft) 96,00 %
26.06.2017 00:26 17,6 C 16,7 C 15,6 C 79 % 0 lf 1011,2 hPa 0,0 l/m 0 min 0 min 0 W/m 10,5 km/h (2 Bft) 97,87 %
26.06.2017 00:28 17,6 C 16,7 C 15,6 C 79 % 0 lf 1011,2 hPa 0,0 l/m 0 min 0 min 0 W/m 12,6 km/h (3 Bft) 100,00 %
26.06.2017 00:30 17,6 C 16,7 C 15,6 C 79 % 0 lf 1011,2 hPa 0,0 l/m 0 min 0 min 0 W/m 12,6 km/h (3 Bft) 93,62 %
26.06.2017 00:32 17,5 C 16,7 C 15,0 C 80 % 0 lf 1011,2 hPa 0,0 l/m 0 min 0 min 4 W/m 10,5 km/h (2 Bft) 97,87 %
26.06.2017 00:34 17,5 C 16,7 C 15,0 C 80 % 0 lf 1011,2 hPa 0,0 l/m 0 min 0 min 0 W/m 12,6 km/h (3 Bft) 97,87 %
26.06.2017 00:36 17,5 C 16,7 C 15,0 C 80 % 0 lf 1011,2 hPa 0,0 l/m 0 min 0 min 5 W/m 12,6 km/h (3 Bft) 94,34 %
26.06.2017 00:38 17,4 C 16,7 C 15,0 C 80 % 0 lf 1011,2 hPa 0,0 l/m 0 min 0 min 0 W/m 12,6 km/h (3 Bft) 97,87 %
26.06.2017 00:40 17,4 C 16,7 C 15,0 C 80 % 0 lf 1011,3 hPa 0,0 l/m 0 min 0 min 0 W/m 8,4 km/h (2 Bft) 98,00 %
26.06.2017 00:42 17,4 C 16,7 C 15,0 C 80 % 0 lf 1011,2 hPa 0,0 l/m 0 min 0 min 0 W/m 8,4 km/h (2 Bft) 95,74 %
26.06.2017 00:44 17,3 C 16,7 C 15,0 C 81 % 0 lf 1011,2 hPa 0,0 l/m 0 min 0 min 0 W/m 8,4 km/h (2 Bft) 94,59 %
26.06.2017 00:46 17,3 C 16,1 C 15,0 C 81 % 0 lf 1011,2 hPa 0,0 l/m 0 min 0 min 0 W/m 14,6 km/h (3 Bft) 95,74 %
26.06.2017 00:48 17,3 C 16,1 C 15,0 C 81 % 0 lf 1011,1 hPa 0,0 l/m 0 min 0 min 0 W/m 14,6 km/h (3 Bft) 95,74 %
26.06.2017 00:50 17,2 C 16,1 C 15,0 C 81 % 0 lf 1011,2 hPa 0,0 l/m 0 min 0 min 0 W/m 10,5 km/h (2 Bft) 92,45 %
26.06.2017 00:52 17,2 C 16,7 C 15,0 C 82 % 0 lf 1011,2 hPa 0,0 l/m 0 min 0 min 0 W/m 16,7 km/h (3 Bft) 95,74 %
26.06.2017 00:54 17,2 C 16,7 C 15,0 C 82 % 0 lf 1011,2 hPa 0,0 l/m 0 min 0 min 0 W/m 16,7 km/h (3 Bft) 93,62 %
26.06.2017 00:56 17,2 C 16,7 C 15,0 C 82 % 0 lf 1011,3 hPa 0,0 l/m 0 min 0 min 0 W/m 12,6 km/h (3 Bft) 89,36 %
26.06.2017 00:58 17,1 C 16,7 C 15,0 C 82 % 0 lf 1011,3 hPa 0,0 l/m 0 min 0 min 0 W/m 12,6 km/h (3 Bft) 95,92 %
26.06.2017 01:00 17,1 C 16,7 C 15,0 C 82 % 0 lf 1011,3 hPa 0,0 l/m 0 min 0 min 0 W/m 12,6 km/h (3 Bft) 94,59 %
26.06.2017 01:02 17,1 C 16,7 C 15,0 C 83 % 0 lf 1011,3 hPa 0,0 l/m 0 min 0 min 0 W/m 10,5 km/h (2 Bft) 95,74 %
26.06.2017 01:04 17,1 C 16,7 C 15,0 C 83 % 0 lf 1011,3 hPa 0,0 l/m 0 min 0 min 0 W/m 20,9 km/h (4 Bft) 95,74 %
26.06.2017 01:06 17,1 C 16,7 C 15,0 C 83 % 0 lf 1011,2 hPa 0,0 l/m 0 min 0 min 0 W/m 14,6 km/h (3 Bft) 96,30 %
26.06.2017 01:08 17,0 C 16,7 C 15,0 C 83 % 0 lf 1011,2 hPa 0,0 l/m 0 min 0 min 0 W/m 16,7 km/h (3 Bft) 95,74 %
26.06.2017 01:10 17,0 C 16,7 C 15,0 C 83 % 0 lf 1011,3 hPa 0,0 l/m 0 min 0 min 0 W/m 12,6 km/h (3 Bft) 95,65 %
26.06.2017 01:12 16,9 C 16,7 C 15,0 C 84 % 0 lf 1011,3 hPa 0,0 l/m 0 min 0 min 0 W/m 10,5 km/h (2 Bft) 94,00 %
26.06.2017 01:14 16,9 C 16,1 C 15,0 C 84 % 0 lf 1011,3 hPa 0,0 l/m 0 min 0 min 0 W/m 14,6 km/h (3 Bft) 97,30 %
26.06.2017 01:16 16,9 C 16,1 C 15,0 C 84 % 0 lf 1011,2 hPa 0,0 l/m 0 min 0 min 0 W/m 12,6 km/h (3 Bft) 97,87 %
26.06.2017 01:18 16,9 C 16,1 C 15,0 C 84 % 0 lf 1011,2 hPa 0,0 l/m 0 min 0 min 0 W/m 10,5 km/h (2 Bft) 95,74 %
26.06.2017 01:20 16,9 C 16,7 C 15,0 C 84 % 0 lf 1011,2 hPa 0,0 l/m 0 min 0 min 0 W/m 12,6 km/h (3 Bft) 96,30 %
26.06.2017 01:22 16,9 C 16,1 C 15,0 C 84 % 0 lf 1011,1 hPa 0,0 l/m 0 min 0 min 0 W/m 10,5 km/h (2 Bft) 97,83 %
26.06.2017 01:24 16,9 C 16,7 C 15,0 C 84 % 0 lf 1011,1 hPa 0,0 l/m 0 min 0 min 0 W/m 20,9 km/h (4 Bft) 98,00 %
26.06.2017 01:26 16,9 C 16,7 C 15,0 C 84 % 0 lf 1011,1 hPa 0,0 l/m 0 min 0 min 0 W/m 16,7 km/h (3 Bft) 93,62 %
26.06.2017 01:28 16,8 C 16,7 C 15,0 C 84 % 0 lf 1011,1 hPa 0,0 l/m 0 min 0 min 0 W/m 14,6 km/h (3 Bft) 97,30 %
26.06.2017 01:30 16,8 C 16,7 C 15,0 C 84 % 0 lf 1011,0 hPa 0,0 l/m 0 min 0 min 0 W/m 20,9 km/h (4 Bft) 97,87 %
26.06.2017 01:32 16,8 C 16,7 C 15,0 C 84 % 0 lf 1011,0 hPa 0,0 l/m 0 min 0 min 0 W/m 16,7 km/h (3 Bft) 100,00 %
26.06.2017 01:34 16,8 C 16,7 C 15,0 C 84 % 0 lf 1010,9 hPa 0,0 l/m 0 min 0 min 0 W/m 12,6 km/h (3 Bft) 100,00 %
26.06.2017 01:36 16,8 C 16,7 C 15,0 C 85 % 0 lf 1011,0 hPa 0,0 l/m 0 min 0 min 0 W/m 25,1 km/h (4 Bft) 96,00 %
26.06.2017 01:38 16,8 C 16,7 C 15,0 C 85 % 0 lf 1011,0 hPa 0,0 l/m 0 min 0 min 0 W/m 14,6 km/h (3 Bft) 100,00 %
26.06.2017 01:40 16,8 C 16,7 C 15,0 C 85 % 0 lf 1011,0 hPa 0,0 l/m 0 min 0 min 0 W/m 23,0 km/h (4 Bft) 100,00 %
26.06.2017 01:42 16,8 C 16,7 C 15,0 C 85 % 0 lf 1011,0 hPa 0,0 l/m 0 min 0 min 0 W/m 18,8 km/h (3 Bft) 93,62 %
26.06.2017 01:44 16,8 C 16,7 C 15,0 C 85 % 0 lf 1011,1 hPa 0,0 l/m 0 min 0 min 0 W/m 23,0 km/h (4 Bft) 95,74 %
26.06.2017 01:46 16,8 C 16,7 C 15,0 C 85 % 0 lf 1011,1 hPa 0,0 l/m 0 min 0 min 0 W/m 16,7 km/h (3 Bft) 95,74 %
26.06.2017 01:48 16,8 C 16,7 C 15,0 C 85 % 0 lf 1011,1 hPa 0,0 l/m 0 min 0 min 0 W/m 20,9 km/h (4 Bft) 96,23 %
26.06.2017 01:50 16,8 C 16,7 C 15,0 C 85 % 0 lf 1011,2 hPa 0,0 l/m 0 min 0 min 0 W/m 16,7 km/h (3 Bft) 98,00 %
26.06.2017 01:52 16,8 C 16,7 C 15,0 C 85 % 0 lf 1011,2 hPa 0,0 l/m 0 min 0 min 0 W/m 12,6 km/h (3 Bft) 97,87 %
26.06.2017 01:54 16,8 C 16,7 C 15,0 C 85 % 0 lf 1011,2 hPa 0,0 l/m 0 min 0 min 0 W/m 20,9 km/h (4 Bft) 100,00 %
26.06.2017 01:56 16,8 C 16,1 C 15,0 C 85 % 0 lf 1011,3 hPa 0,0 l/m 0 min 0 min 0 W/m 14,6 km/h (3 Bft) 97,87 %
26.06.2017 01:58 16,8 C 16,1 C 15,0 C 85 % 0 lf 1011,2 hPa 0,0 l/m 0 min 0 min 0 W/m 10,5 km/h (2 Bft) 92,45 %
26.06.2017 02:00 16,8 C 16,1 C 15,0 C 85 % 0 lf 1011,2 hPa 0,0 l/m 0 min 0 min 0 W/m 12,6 km/h (3 Bft) 96,00 %
26.06.2017 02:02 16,8 C 16,1 C 14,4 C 85 % 0 lf 1011,2 hPa 0,0 l/m 0 min 0 min 0 W/m 16,7 km/h (3 Bft) 97,87 %
26.06.2017 02:04 16,8 C 16,1 C 14,4 C 85 % 0 lf 1011,2 hPa 0,0 l/m 0 min 0 min 0 W/m 14,6 km/h (3 Bft) 100,00 %
26.06.2017 02:06 16,8 C 16,1 C 14,4 C 85 % 0 lf 1011,3 hPa 0,0 l/m 0 min 0 min 0 W/m 10,5 km/h (2 Bft) 97,87 %
26.06.2017 02:08 16,7 C 16,1 C 14,4 C 85 % 0 lf 1011,2 hPa 0,0 l/m 0 min 0 min 0 W/m 14,6 km/h (3 Bft) 95,74 %
26.06.2017 02:10 16,7 C 16,1 C 14,4 C 85 % 0 lf 1011,2 hPa 0,0 l/m 0 min 0 min 0 W/m 14,6 km/h (3 Bft) 97,83 %
26.06.2017 02:12 16,7 C 16,1 C 15,0 C 85 % 0 lf 1011,2 hPa 0,0 l/m 0 min 0 min 0 W/m 14,6 km/h (3 Bft) 98,15 %
26.06.2017 02:14 16,7 C 16,1 C 15,0 C 85 % 0 lf 1011,2 hPa 0,0 l/m 0 min 0 min 0 W/m 12,6 km/h (3 Bft) 98,00 %
26.06.2017 02:16 16,7 C 16,1 C 14,4 C 85 % 0 lf 1011,2 hPa 0,0 l/m 0 min 0 min 0 W/m 14,6 km/h (3 Bft) 100,00 %
26.06.2017 02:18 16,7 C 16,1 C 14,4 C 86 % 0 lf 1011,2 hPa 0,0 l/m 0 min 0 min 0 W/m 16,7 km/h (3 Bft) 100,00 %
26.06.2017 02:20 16,6 C 16,1 C 14,4 C 86 % 0 lf 1011,2 hPa 0,0 l/m 0 min 0 min 0 W/m 12,6 km/h (3 Bft) 100,00 %
26.06.2017 02:22 16,6 C 16,1 C 14,4 C 86 % 0 lf 1011,2 hPa 0,0 l/m 0 min 0 min 0 W/m 14,6 km/h (3 Bft) 100,00 %
26.06.2017 02:24 16,6 C 16,1 C 14,4 C 86 % 0 lf 1011,2 hPa 0,0 l/m 0 min 0 min 0 W/m 14,6 km/h (3 Bft) 95,74 %
26.06.2017 02:26 16,6 C 16,1 C 14,4 C 86 % 0 lf 1011,3 hPa 0,0 l/m 0 min 0 min 0 W/m 10,5 km/h (2 Bft) 97,87 %
26.06.2017 02:28 16,6 C 16,1 C 14,4 C 86 % 0 lf 1011,3 hPa 0,0 l/m 0 min 0 min 0 W/m 12,6 km/h (3 Bft) 97,87 %
26.06.2017 02:30 16,6 C 16,1 C 14,4 C 86 % 0 lf 1011,3 hPa 0,0 l/m 0 min 0 min 0 W/m 12,6 km/h (3 Bft) 97,87 %
26.06.2017 02:32 16,5 C 16,1 C 15,0 C 86 % 0 lf 1011,3 hPa 0,0 l/m 0 min 0 min 0 W/m 12,6 km/h (3 Bft) 96,23 %
26.06.2017 02:34 16,5 C 16,1 C 15,0 C 86 % 0 lf 1011,2 hPa 0,0 l/m 0 min 0 min 0 W/m 10,5 km/h (2 Bft) 97,87 %
26.06.2017 02:36 16,5 C 16,1 C 15,0 C 86 % 0 lf 1011,2 hPa 0,0 l/m 0 min 0 min 0 W/m 10,5 km/h (2 Bft) 94,00 %
26.06.2017 02:38 16,5 C 16,1 C 15,0 C 86 % 0 lf 1011,2 hPa 0,0 l/m 0 min 0 min 0 W/m 8,4 km/h (2 Bft) 97,87 %
26.06.2017 02:40 16,5 C 16,7 C 15,0 C 87 % 0 lf 1011,2 hPa 0,0 l/m 0 min 0 min 0 W/m 8,4 km/h (2 Bft) 97,87 %
26.06.2017 02:42 16,5 C 16,7 C 15,0 C 87 % 0 lf 1011,2 hPa 0,0 l/m 0 min 0 min 0 W/m 12,6 km/h (3 Bft) 97,30 %
26.06.2017 02:44 16,5 C 16,7 C 15,6 C 87 % 0 lf 1011,2 hPa 0,0 l/m 0 min 0 min 0 W/m 12,6 km/h (3 Bft) 93,62 %
26.06.2017 02:46 16,5 C 16,7 C 15,6 C 87 % 0 lf 1011,2 hPa 0,0 l/m 0 min 0 min 0 W/m 16,7 km/h (3 Bft) 97,83 %
26.06.2017 02:48 16,5 C 16,7 C 15,6 C 87 % 0 lf 1011,2 hPa 0,0 l/m 0 min 0 min 0 W/m 12,6 km/h (3 Bft) 93,62 %
26.06.2017 02:50 16,5 C 16,7 C 15,6 C 87 % 0 lf 1011,2 hPa 0,0 l/m 0 min 0 min 0 W/m 14,6 km/h (3 Bft) 97,87 %
26.06.2017 02:52 16,5 C 16,7 C 15,6 C 87 % 0 lf 1011,2 hPa 0,0 l/m 0 min 0 min 0 W/m 10,5 km/h (2 Bft) 97,87 %
26.06.2017 02:54 16,6 C 16,7 C 15,6 C 87 % 0 lf 1011,2 hPa 0,0 l/m 0 min 0 min 0 W/m 14,6 km/h (3 Bft) 98,11 %
26.06.2017 02:56 16,6 C 16,7 C 15,0 C 87 % 0 lf 1011,2 hPa 0,0 l/m 0 min 0 min 0 W/m 10,5 km/h (2 Bft) 98,00 %
26.06.2017 02:58 16,6 C 16,7 C 15,0 C 87 % 0 lf 1011,2 hPa 0,0 l/m 0 min 0 min 0 W/m 10,5 km/h (2 Bft) 95,74 %
26.06.2017 03:00 16,6 C 16,7 C 15,0 C 87 % 0 lf 1011,2 hPa 0,0 l/m 0 min 0 min 0 W/m 23,0 km/h (4 Bft) 97,30 %
26.06.2017 03:02 16,6 C 16,7 C 15,0 C 87 % 0 lf 1011,1 hPa 0,0 l/m 0 min 0 min 0 W/m 12,6 km/h (3 Bft) 95,74 %
26.06.2017 03:04 16,6 C 16,7 C 15,6 C 87 % 0 lf 1011,1 hPa 0,0 l/m 0 min 0 min 0 W/m 16,7 km/h (3 Bft) 95,74 %
26.06.2017 03:06 16,6 C 16,7 C 15,6 C 86 % 0 lf 1011,2 hPa 0,0 l/m 0 min 0 min 0 W/m 16,7 km/h (3 Bft) 97,87 %
26.06.2017 03:08 16,6 C 16,7 C 15,6 C 86 % 0 lf 1011,1 hPa 0,0 l/m 0 min 0 min 0 W/m 14,6 km/h (3 Bft) 95,74 %
26.06.2017 03:10 16,6 C 16,7 C 15,6 C 86 % 0 lf 1011,1 hPa 0,0 l/m 0 min 0 min 0 W/m 14,6 km/h (3 Bft) 97,83 %
26.06.2017 03:12 16,6 C 16,7 C 15,6 C 86 % 0 lf 1011,1 hPa 0,0 l/m 0 min 0 min 0 W/m 14,6 km/h (3 Bft) 93,62 %
26.06.2017 03:14 16,7 C 16,7 C 15,6 C 86 % 0 lf 1011,2 hPa 0,0 l/m 0 min 0 min 0 W/m 16,7 km/h (3 Bft) 95,74 %
26.06.2017 03:16 16,7 C 16,7 C 15,6 C 86 % 0 lf 1011,2 hPa 0,0 l/m 0 min 0 min 0 W/m 12,6 km/h (3 Bft) 93,62 %
26.06.2017 03:18 16,7 C 16,7 C 15,6 C 86 % 0 lf 1011,2 hPa 0,0 l/m 0 min 0 min 0 W/m 10,5 km/h (2 Bft) 94,34 %
26.06.2017 03:20 16,7 C 16,7 C 15,6 C 86 % 0 lf 1011,2 hPa 0,0 l/m 0 min 0 min 0 W/m 14,6 km/h (3 Bft) 98,00 %
26.06.2017 03:22 16,7 C 16,7 C 15,6 C 86 % 0 lf 1011,1 hPa 0,0 l/m 0 min 0 min 0 W/m 18,8 km/h (3 Bft) 95,74 %
26.06.2017 03:24 16,7 C 16,7 C 15,6 C 86 % 0 lf 1011,2 hPa 0,0 l/m 0 min 0 min 0 W/m 18,8 km/h (3 Bft) 91,89 %
26.06.2017 03:26 16,8 C 16,7 C 15,6 C 86 % 0 lf 1011,1 hPa 0,0 l/m 0 min 0 min 0 W/m 14,6 km/h (3 Bft) 95,74 %
26.06.2017 03:28 16,8 C 16,7 C 15,6 C 86 % 0 lf 1011,2 hPa 0,0 l/m 0 min 0 min 0 W/m 12,6 km/h (3 Bft) 97,87 %
26.06.2017 03:30 16,8 C 16,7 C 15,6 C 86 % 0 lf 1011,2 hPa 0,0 l/m 0 min 0 min 0 W/m 14,6 km/h (3 Bft) 97,87 %
26.06.2017 03:32 16,8 C 16,7 C 16,1 C 85 % 0 lf 1011,2 hPa 0,0 l/m 0 min 0 min 0 W/m 16,7 km/h (3 Bft) 92,45 %
26.06.2017 03:34 16,8 C 16,7 C 16,1 C 85 % 0 lf 1011,2 hPa 0,0 l/m 0 min 0 min 0 W/m 18,8 km/h (3 Bft) 94,00 %
26.06.2017 03:36 16,9 C 16,7 C 16,1 C 85 % 0 lf 1011,2 hPa 0,0 l/m 0 min 0 min 0 W/m 16,7 km/h (3 Bft) 94,59 %
26.06.2017 03:38 16,9 C 17,2 C 16,1 C 85 % 0 lf 1011,2 hPa 0,0 l/m 0 min 0 min 0 W/m 10,5 km/h (2 Bft) 95,74 %
26.06.2017 03:40 16,9 C 16,7 C 16,1 C 85 % 0 lf 1011,2 hPa 0,0 l/m 0 min 0 min 0 W/m 14,6 km/h (3 Bft) 93,62 %
26.06.2017 03:42 16,9 C 16,7 C 16,1 C 85 % 0 lf 1011,2 hPa 0,0 l/m 0 min 0 min 0 W/m 18,8 km/h (3 Bft) 94,34 %
26.06.2017 03:44 16,9 C 17,2 C 16,1 C 85 % 0 lf 1011,2 hPa 0,0 l/m 0 min 0 min 0 W/m 12,6 km/h (3 Bft) 92,00 %
26.06.2017 03:46 16,9 C 17,2 C 16,1 C 85 % 0 lf 1011,2 hPa 0,0 l/m 0 min 0 min 0 W/m 16,7 km/h (3 Bft) 87,23 %
26.06.2017 03:48 16,9 C 17,2 C 16,1 C 85 % 0 lf 1011,2 hPa 0,0 l/m 0 min 0 min 0 W/m 18,8 km/h (3 Bft) 93,62 %
26.06.2017 03:50 16,9 C 17,2 C 16,1 C 85 % 0 lf 1011,3 hPa 0,0 l/m 0 min 0 min 0 W/m 18,8 km/h (3 Bft) 93,62 %
26.06.2017 03:52 17,0 C 17,2 C 16,1 C 85 % 0 lf 1011,3 hPa 0,0 l/m 0 min 0 min 0 W/m 20,9 km/h (4 Bft) 93,62 %
26.06.2017 03:54 17,0 C 17,2 C 16,1 C 85 % 0 lf 1011,3 hPa 0,0 l/m 0 min 0 min 0 W/m 16,7 km/h (3 Bft) 91,89 %
26.06.2017 03:56 17,0 C 17,2 C 16,1 C 85 % 0 lf 1011,2 hPa 0,0 l/m 0 min 0 min 0 W/m 16,7 km/h (3 Bft) 93,48 %
26.06.2017 03:58 17,1 C 17,2 C 16,1 C 85 % 0 lf 1011,2 hPa 0,0 l/m 0 min 0 min 0 W/m 16,7 km/h (3 Bft) 91,49 %
26.06.2017 04:00 17,1 C 17,2 C 16,1 C 84 % 0 lf 1011,2 hPa 0,0 l/m 0 min 0 min 0 W/m 14,6 km/h (3 Bft) 89,36 %
26.06.2017 04:02 17,1 C 17,2 C 16,1 C 84 % 0 lf 1011,3 hPa 0,0 l/m 0 min 0 min 0 W/m 8,4 km/h (2 Bft) 100,00 %
26.06.2017 04:05 17,1 C 17,2 C 16,1 C 84 % 0 lf 1011,3 hPa 0,0 l/m 0 min 0 min 0 W/m 20,9 km/h (4 Bft) 45,61 %
26.06.2017 04:12 17,1 C 17,2 C 16,1 C 84 % 0 lf 1011,2 hPa 0,0 l/m 0 min 0 min 0 W/m 16,7 km/h (3 Bft) 97,96 %
26.06.2017 04:14 17,1 C 17,2 C 16,1 C 84 % 0 lf 1011,2 hPa 0,0 l/m 0 min 0 min 0 W/m 16,7 km/h (3 Bft) 95,74 %
26.06.2017 04:16 17,1 C 17,2 C 16,1 C 84 % 0 lf 1011,2 hPa 0,0 l/m 0 min 0 min 0 W/m 18,8 km/h (3 Bft) 97,87 %
26.06.2017 04:18 17,1 C 17,2 C 16,1 C 84 % 0 lf 1011,3 hPa 0,0 l/m 0 min 0 min 0 W/m 14,6 km/h (3 Bft) 97,87 %
26.06.2017 04:20 17,1 C 17,2 C 16,1 C 84 % 0 lf 1011,2 hPa 0,0 l/m 0 min 0 min 0 W/m 18,8 km/h (3 Bft) 97,87 %
26.06.2017 04:22 17,1 C 17,2 C 16,1 C 84 % 0 lf 1011,2 hPa 0,0 l/m 0 min 0 min 0 W/m 14,6 km/h (3 Bft) 100,00 %
26.06.2017 04:24 17,1 C 17,2 C 16,1 C 84 % 0 lf 1011,1 hPa 0,0 l/m 0 min 0 min 0 W/m 18,8 km/h (3 Bft) 100,00 %
26.06.2017 04:26 17,1 C 17,2 C 16,1 C 84 % 0 lf 1011,1 hPa 0,0 l/m 0 min 0 min 0 W/m 25,1 km/h (4 Bft) 97,87 %
26.06.2017 04:28 17,1 C 17,2 C 16,1 C 84 % 0 lf 1011,2 hPa 0,0 l/m 0 min 0 min 0 W/m 29,3 km/h (5 Bft) 100,00 %
26.06.2017 04:30 17,1 C 17,2 C 16,1 C 84 % 0 lf 1011,2 hPa 0,0 l/m 0 min 0 min 0 W/m 14,6 km/h (3 Bft) 97,87 %
26.06.2017 04:32 17,1 C 17,2 C 16,1 C 84 % 0 lf 1011,1 hPa 0,0 l/m 0 min 0 min 0 W/m 20,9 km/h (4 Bft) 100,00 %
26.06.2017 04:34 17,1 C 17,2 C 16,1 C 84 % 0 lf 1011,1 hPa 0,0 l/m 0 min 0 min 0 W/m 16,7 km/h (3 Bft) 100,00 %
26.06.2017 04:36 17,1 C 17,2 C 16,1 C 84 % 0 lf 1011,1 hPa 0,0 l/m 0 min 0 min 0 W/m 20,9 km/h (4 Bft) 100,00 %
26.06.2017 04:38 17,1 C 17,2 C 16,1 C 84 % 0 lf 1011,1 hPa 0,0 l/m 0 min 0 min 0 W/m 16,7 km/h (3 Bft) 97,87 %
26.06.2017 04:40 17,1 C 17,2 C 16,1 C 84 % 0 lf 1011,1 hPa 0,0 l/m 0 min 0 min 0 W/m 12,6 km/h (3 Bft) 100,00 %
26.06.2017 04:42 17,1 C 17,2 C 16,1 C 84 % 0 lf 1011,2 hPa 0,0 l/m 0 min 0 min 0 W/m 14,6 km/h (3 Bft) 100,00 %
26.06.2017 04:44 17,1 C 16,7 C 16,1 C 84 % 0 lf 1011,1 hPa 0,0 l/m 0 min 0 min 0 W/m 16,7 km/h (3 Bft) 100,00 %
26.06.2017 04:46 17,1 C 17,2 C 16,1 C 84 % 0 lf 1011,1 hPa 0,0 l/m 0 min 0 min 0 W/m 16,7 km/h (3 Bft) 100,00 %
26.06.2017 04:48 17,1 C 16,7 C 16,1 C 84 % 0 lf 1011,1 hPa 0,0 l/m 0 min 0 min 0 W/m 14,6 km/h (3 Bft) 100,00 %
26.06.2017 04:50 17,1 C 16,7 C 16,1 C 84 % 0 lf 1011,1 hPa 0,0 l/m 0 min 0 min 0 W/m 14,6 km/h (3 Bft) 97,87 %
26.06.2017 04:52 17,1 C 16,7 C 16,1 C 84 % 0 lf 1011,1 hPa 0,0 l/m 0 min 0 min 0 W/m 18,8 km/h (3 Bft) 100,00 %
26.06.2017 04:54 17,1 C 16,7 C 16,1 C 84 % 0 lf 1011,1 hPa 0,0 l/m 0 min 0 min 0 W/m 14,6 km/h (3 Bft) 100,00 %
26.06.2017 04:56 17,1 C 16,7 C 16,1 C 84 % 0 lf 1011,1 hPa 0,0 l/m 0 min 0 min 0 W/m 14,6 km/h (3 Bft) 97,87 %
26.06.2017 04:58 17,1 C 16,7 C 16,1 C 84 % 0 lf 1011,1 hPa 0,0 l/m 0 min 0 min 0 W/m 18,8 km/h (3 Bft) 100,00 %
26.06.2017 05:00 17,1 C 16,7 C 16,1 C 84 % 0 lf 1011,1 hPa 0,0 l/m 0 min 0 min 0 W/m 14,6 km/h (3 Bft) 100,00 %
26.06.2017 05:02 17,1 C 16,7 C 16,1 C 84 % 0 lf 1011,1 hPa 0,0 l/m 0 min 0 min 0 W/m 12,6 km/h (3 Bft) 100,00 %
26.06.2017 05:04 17,1 C 16,7 C 16,1 C 84 % 0 lf 1011,1 hPa 0,0 l/m 0 min 0 min 0 W/m 12,6 km/h (3 Bft) 100,00 %
26.06.2017 05:06 17,1 C 16,7 C 16,1 C 84 % 0 lf 1011,1 hPa 0,0 l/m 0 min 0 min 0 W/m 14,6 km/h (3 Bft) 92,00 %
26.06.2017 05:08 17,1 C 16,7 C 16,1 C 84 % 0 lf 1011,0 hPa 0,0 l/m 0 min 0 min 0 W/m 12,6 km/h (3 Bft) 100,00 %
26.06.2017 05:10 17,1 C 16,7 C 16,1 C 84 % 0 lf 1011,1 hPa 0,0 l/m 0 min 0 min 0 W/m 10,5 km/h (2 Bft) 100,00 %
26.06.2017 05:13 17,1 C 16,7 C 16,1 C 84 % 0 lf 1011,1 hPa 0,0 l/m 0 min 0 min 0 W/m 14,6 km/h (3 Bft) 100,00 %
26.06.2017 05:14 17,1 C 16,7 C 16,1 C 84 % 0 lf 1011,1 hPa 0,0 l/m 0 min 0 min 0 W/m 16,7 km/h (3 Bft) 100,00 %
26.06.2017 05:16 17,1 C 16,7 C 15,6 C 84 % 0 lf 1011,1 hPa 0,0 l/m 0 min 0 min 0 W/m 12,6 km/h (3 Bft) 100,00 %
26.06.2017 05:18 17,1 C 16,7 C 15,6 C 85 % 0 lf 1011,1 hPa 0,0 l/m 0 min 0 min 0 W/m 14,6 km/h (3 Bft) 100,00 %
26.06.2017 05:20 17,0 C 16,7 C 15,6 C 85 % 0 lf 1011,0 hPa 0,0 l/m 0 min 0 min 0 W/m 14,6 km/h (3 Bft) 100,00 %
26.06.2017 05:22 17,0 C 16,7 C 15,6 C 85 % 0 lf 1011,0 hPa 0,0 l/m 0 min 0 min 0 W/m 10,5 km/h (2 Bft) 97,87 %
26.06.2017 05:24 17,0 C 16,7 C 15,6 C 85 % 0 lf 1011,0 hPa 0,0 l/m 0 min 0 min 0 W/m 14,6 km/h (3 Bft) 97,87 %
26.06.2017 05:26 17,0 C 16,7 C 15,6 C 85 % 0 lf 1011,1 hPa 0,0 l/m 0 min 0 min 0 W/m 20,9 km/h (4 Bft) 97,87 %
26.06.2017 05:28 17,0 C 16,7 C 15,6 C 85 % 0 lf 1011,0 hPa 0,0 l/m 0 min 0 min 0 W/m 23,0 km/h (4 Bft) 97,87 %
26.06.2017 05:30 17,0 C 16,7 C 15,6 C 85 % 0 lf 1011,1 hPa 0,0 l/m 0 min 0 min 7 W/m 16,7 km/h (3 Bft) 97,87 %
26.06.2017 05:32 16,9 C 16,7 C 15,6 C 85 % 0 lf 1011,1 hPa 0,0 l/m 0 min 0 min 11 W/m 16,7 km/h (3 Bft) 100,00 %
26.06.2017 05:34 16,9 C 16,7 C 15,6 C 85 % 0 lf 1011,1 hPa 0,0 l/m 0 min 0 min 16 W/m 18,8 km/h (3 Bft) 100,00 %
26.06.2017 05:36 16,9 C 16,7 C 15,6 C 85 % 0 lf 1011,1 hPa 0,0 l/m 0 min 0 min 19 W/m 18,8 km/h (3 Bft) 97,92 %
26.06.2017 05:38 16,9 C 16,7 C 15,6 C 85 % 0 lf 1011,1 hPa 0,0 l/m 0 min 0 min 19 W/m 16,7 km/h (3 Bft) 93,62 %
26.06.2017 05:40 16,9 C 16,7 C 15,6 C 85 % 0 lf 1011,1 hPa 0,0 l/m 0 min 0 min 19 W/m 14,6 km/h (3 Bft) 97,87 %
26.06.2017 05:42 16,9 C 16,7 C 15,6 C 85 % 0 lf 1011,1 hPa 0,0 l/m 0 min 0 min 19 W/m 16,7 km/h (3 Bft) 95,74 %
26.06.2017 05:44 16,9 C 16,7 C 15,6 C 85 % 0 lf 1011,1 hPa 0,0 l/m 0 min 0 min 19 W/m 14,6 km/h (3 Bft) 100,00 %
26.06.2017 05:46 16,9 C 16,7 C 15,6 C 85 % 0 lf 1011,0 hPa 0,0 l/m 0 min 0 min 19 W/m 16,7 km/h (3 Bft) 97,87 %
26.06.2017 05:48 16,8 C 16,7 C 15,6 C 85 % 0 lf 1011,1 hPa 0,0 l/m 0 min 0 min 19 W/m 18,8 km/h (3 Bft) 97,83 %
26.06.2017 05:50 16,8 C 16,7 C 15,6 C 85 % 0 lf 1011,1 hPa 0,0 l/m 0 min 0 min 19 W/m 14,6 km/h (3 Bft) 95,74 %
26.06.2017 05:52 16,8 C 16,7 C 15,6 C 85 % 0 lf 1011,0 hPa 0,0 l/m 0 min 0 min 19 W/m 18,8 km/h (3 Bft) 95,74 %
26.06.2017 05:54 16,8 C 16,7 C 15,6 C 85 % 0 lf 1011,0 hPa 0,0 l/m 0 min 0 min 21 W/m 14,6 km/h (3 Bft) 97,87 %
26.06.2017 05:56 16,8 C 16,7 C 15,6 C 85 % 0 lf 1011,1 hPa 0,0 l/m 0 min 0 min 22 W/m 8,4 km/h (2 Bft) 95,74 %
26.06.2017 05:58 16,8 C 16,7 C 15,6 C 85 % 0 lf 1011,1 hPa 0,0 l/m 0 min 0 min 23 W/m 12,6 km/h (3 Bft) 93,48 %
26.06.2017 06:00 16,8 C 16,7 C 15,6 C 86 % 0 lf 1011,1 hPa 0,0 l/m 0 min 0 min 24 W/m 12,6 km/h (3 Bft) 95,74 %
26.06.2017 06:02 16,8 C 16,7 C 15,6 C 86 % 0 lf 1011,1 hPa 0,0 l/m 0 min 0 min 25 W/m 16,7 km/h (3 Bft) 93,62 %
26.06.2017 06:04 16,7 C 16,7 C 15,6 C 86 % 0 lf 1011,1 hPa 0,0 l/m 0 min 0 min 26 W/m 10,5 km/h (2 Bft) 93,62 %
26.06.2017 06:06 16,7 C 16,7 C 15,6 C 86 % 0 lf 1011,1 hPa 0,0 l/m 0 min 0 min 27 W/m 10,5 km/h (2 Bft) 95,74 %
26.06.2017 06:08 16,7 C 16,7 C 15,6 C 86 % 0 lf 1011,1 hPa 0,0 l/m 0 min 0 min 28 W/m 16,7 km/h (3 Bft) 93,62 %
26.06.2017 06:10 16,7 C 16,7 C 15,0 C 86 % 0 lf 1011,1 hPa 0,0 l/m 2 min 0 min 59 W/m 14,6 km/h (3 Bft) 95,65 %
26.06.2017 06:12 16,7 C 16,7 C 15,0 C 86 % 0 lf 1011,1 hPa 0,0 l/m 0 min 0 min 35 W/m 16,7 km/h (3 Bft) 97,22 %
26.06.2017 06:14 16,7 C 16,7 C 15,0 C 86 % 0 lf 1011,1 hPa 0,0 l/m 0 min 0 min 36 W/m 16,7 km/h (3 Bft) 97,83 %
26.06.2017 06:16 16,6 C 16,7 C 15,6 C 86 % 0 lf 1011,2 hPa 0,0 l/m 0 min 0 min 36 W/m 12,6 km/h (3 Bft) 95,74 %
26.06.2017 06:18 16,6 C 16,7 C 15,6 C 86 % 0 lf 1011,1 hPa 0,0 l/m 0 min 0 min 36 W/m 14,6 km/h (3 Bft) 93,62 %
26.06.2017 06:20 16,6 C 16,7 C 15,6 C 86 % 0 lf 1011,1 hPa 0,0 l/m 0 min 0 min 36 W/m 14,6 km/h (3 Bft) 93,22 %
26.06.2017 06:22 16,6 C 16,7 C 15,6 C 86 % 0 lf 1011,2 hPa 0,0 l/m 0 min 0 min 36 W/m 16,7 km/h (3 Bft) 91,43 %
26.06.2017 06:24 16,6 C 16,7 C 15,6 C 86 % 0 lf 1011,2 hPa 0,0 l/m 0 min 0 min 36 W/m 14,6 km/h (3 Bft) 93,62 %
26.06.2017 06:26 16,6 C 16,7 C 15,6 C 86 % 0 lf 1011,2 hPa 0,0 l/m 0 min 0 min 36 W/m 16,7 km/h (3 Bft) 91,30 %
26.06.2017 06:28 16,7 C 16,7 C 15,6 C 87 % 0 lf 1011,3 hPa 0,0 l/m 0 min 0 min 36 W/m 10,5 km/h (2 Bft) 91,49 %
26.06.2017 06:30 16,6 C 16,7 C 16,1 C 87 % 0 lf 1011,3 hPa 0,0 l/m 0 min 0 min 36 W/m 16,7 km/h (3 Bft) 87,23 %
26.06.2017 06:32 16,7 C 17,2 C 16,1 C 87 % 0 lf 1011,3 hPa 0,0 l/m 0 min 0 min 37 W/m 12,6 km/h (3 Bft) 93,62 %
26.06.2017 06:34 16,7 C 17,2 C 16,1 C 87 % 0 lf 1011,3 hPa 0,0 l/m 0 min 0 min 36 W/m 14,6 km/h (3 Bft) 93,62 %
26.06.2017 06:36 16,7 C 17,2 C 16,1 C 87 % 0 lf 1011,3 hPa 0,0 l/m 0 min 0 min 37 W/m 12,6 km/h (3 Bft) 86,96 %
26.06.2017 06:38 16,7 C 17,2 C 16,1 C 87 % 0 lf 1011,3 hPa 0,0 l/m 0 min 0 min 37 W/m 14,6 km/h (3 Bft) 93,62 %
26.06.2017 06:40 16,7 C 17,2 C 16,1 C 87 % 0 lf 1011,4 hPa 0,0 l/m 0 min 0 min 37 W/m 6,3 km/h (2 Bft) 93,62 %
26.06.2017 06:42 16,7 C 17,2 C 16,1 C 87 % 0 lf 1011,4 hPa 0,0 l/m 0 min 0 min 37 W/m 16,7 km/h (3 Bft) 91,49 %
26.06.2017 06:44 16,7 C 17,2 C 16,1 C 87 % 0 lf 1011,4 hPa 0,0 l/m 0 min 0 min 37 W/m 12,6 km/h (3 Bft) 93,62 %
26.06.2017 06:46 16,7 C 17,2 C 16,7 C 87 % 0 lf 1011,3 hPa 0,0 l/m 0 min 0 min 38 W/m 8,4 km/h (2 Bft) 85,11 %
26.06.2017 06:50 16,8 C 17,2 C 16,7 C 87 % 0 lf 1011,3 hPa 0,0 l/m 0 min 0 min 38 W/m 16,7 km/h (3 Bft) 92,98 %
26.06.2017 06:55 16,8 C 17,2 C 16,7 C 87 % 0 lf 1011,3 hPa 0,0 l/m 0 min 0 min 39 W/m 14,6 km/h (3 Bft) 95,61 %
26.06.2017 06:58 16,8 C 17,8 C 16,7 C 87 % 0 lf 1011,2 hPa 0,0 l/m 0 min 0 min 39 W/m 18,8 km/h (3 Bft) 91,49 %
26.06.2017 07:00 16,9 C 17,8 C 16,7 C 87 % 0 lf 1011,3 hPa 0,0 l/m 0 min 0 min 39 W/m 14,6 km/h (3 Bft) 89,36 %
26.06.2017 07:02 16,9 C 17,8 C 16,7 C 87 % 0 lf 1011,4 hPa 0,0 l/m 0 min 0 min 38 W/m 8,4 km/h (2 Bft) 89,36 %
26.06.2017 07:04 16,9 C 17,8 C 16,7 C 87 % 0 lf 1011,4 hPa 0,0 l/m 0 min 0 min 38 W/m 10,5 km/h (2 Bft) 93,62 %
26.06.2017 07:06 16,9 C 17,8 C 16,7 C 87 % 0 lf 1011,4 hPa 0,0 l/m 0 min 0 min 38 W/m 12,6 km/h (3 Bft) 100,00 %
26.06.2017 07:08 17,0 C 17,8 C 16,7 C 87 % 0 lf 1011,5 hPa 0,0 l/m 0 min 0 min 38 W/m 16,7 km/h (3 Bft) 100,00 %
26.06.2017 07:10 17,0 C 17,8 C 16,7 C 87 % 0 lf 1011,5 hPa 0,0 l/m 0 min 0 min 38 W/m 14,6 km/h (3 Bft) 97,83 %
26.06.2017 07:12 17,0 C 17,8 C 16,7 C 87 % 0 lf 1011,6 hPa 0,0 l/m 0 min 0 min 38 W/m 14,6 km/h (3 Bft) 95,74 %
26.06.2017 07:14 17,1 C 17,8 C 16,7 C 87 % 0 lf 1011,6 hPa 0,0 l/m 0 min 0 min 38 W/m 23,0 km/h (4 Bft) 97,87 %
26.06.2017 07:16 17,1 C 17,8 C 16,7 C 87 % 0 lf 1011,6 hPa 0,0 l/m 0 min 0 min 38 W/m 20,9 km/h (4 Bft) 97,87 %
26.06.2017 07:18 17,1 C 17,8 C 16,7 C 87 % 0 lf 1011,6 hPa 0,0 l/m 0 min 0 min 38 W/m 18,8 km/h (3 Bft) 97,87 %
26.06.2017 07:20 17,1 C 17,8 C 16,7 C 87 % 0 lf 1011,6 hPa 0,0 l/m 0 min 0 min 37 W/m 18,8 km/h (3 Bft) 93,48 %
26.06.2017 07:22 17,1 C 17,8 C 16,7 C 87 % 0 lf 1011,6 hPa 0,0 l/m 0 min 0 min 38 W/m 20,9 km/h (4 Bft) 100,00 %
26.06.2017 07:24 17,1 C 17,8 C 17,2 C 87 % 0 lf 1011,6 hPa 0,0 l/m 0 min 0 min 38 W/m 20,9 km/h (4 Bft) 100,00 %
26.06.2017 07:26 17,1 C 17,8 C 17,2 C 87 % 0 lf 1011,6 hPa 0,0 l/m 0 min 0 min 38 W/m 14,6 km/h (3 Bft) 100,00 %
26.06.2017 07:28 17,1 C 17,8 C 17,2 C 87 % 0 lf 1011,6 hPa 0,0 l/m 0 min 0 min 38 W/m 16,7 km/h (3 Bft) 100,00 %
26.06.2017 07:30 17,2 C 17,8 C 17,2 C 87 % 0 lf 1011,6 hPa 0,0 l/m 0 min 0 min 38 W/m 20,9 km/h (4 Bft) 97,87 %
26.06.2017 07:32 17,2 C 17,8 C 17,2 C 87 % 0 lf 1011,6 hPa 0,0 l/m 0 min 0 min 38 W/m 16,7 km/h (3 Bft) 98,11 %
26.06.2017 07:34 17,2 C 17,8 C 17,2 C 87 % 0 lf 1011,6 hPa 0,0 l/m 0 min 0 min 38 W/m 14,6 km/h (3 Bft) 100,00 %
26.06.2017 07:36 17,2 C 18,3 C 17,2 C 87 % 0 lf 1011,7 hPa 0,0 l/m 0 min 0 min 40 W/m 18,8 km/h (3 Bft) 100,00 %
26.06.2017 07:38 17,2 C 18,3 C 17,8 C 87 % 0 lf 1011,7 hPa 0,0 l/m 0 min 0 min 40 W/m 16,7 km/h (3 Bft) 95,74 %
26.06.2017 07:40 17,3 C 18,3 C 17,8 C 87 % 0 lf 1011,7 hPa 0,0 l/m 0 min 0 min 41 W/m 14,6 km/h (3 Bft) 97,87 %
26.06.2017 07:42 17,3 C 18,9 C 17,8 C 87 % 0 lf 1011,7 hPa 0,0 l/m 0 min 0 min 41 W/m 14,6 km/h (3 Bft) 97,22 %
26.06.2017 07:44 17,3 C 18,9 C 17,8 C 87 % 0 lf 1011,7 hPa 0,0 l/m 0 min 0 min 41 W/m 20,9 km/h (4 Bft) 95,74 %
26.06.2017 07:46 17,4 C 18,9 C 18,3 C 87 % 0 lf 1011,7 hPa 0,0 l/m 0 min 0 min 41 W/m 20,9 km/h (4 Bft) 95,74 %
26.06.2017 07:48 17,4 C 18,9 C 17,8 C 87 % 0 lf 1011,8 hPa 0,0 l/m 0 min 0 min 43 W/m 18,8 km/h (3 Bft) 97,87 %
26.06.2017 07:50 17,4 C 18,9 C 17,8 C 86 % 0 lf 1011,7 hPa 0,0 l/m 0 min 0 min 41 W/m 14,6 km/h (3 Bft) 95,74 %
26.06.2017 07:52 17,4 C 18,9 C 17,8 C 86 % 0 lf 1011,9 hPa 0,0 l/m 0 min 0 min 39 W/m 20,9 km/h (4 Bft) 95,65 %
26.06.2017 07:54 17,5 C 18,3 C 17,8 C 86 % 0 lf 1011,9 hPa 0,0 l/m 0 min 0 min 38 W/m 12,6 km/h (3 Bft) 97,87 %
26.06.2017 07:56 17,5 C 18,3 C 17,8 C 86 % 0 lf 1011,8 hPa 0,0 l/m 0 min 0 min 38 W/m 18,8 km/h (3 Bft) 97,87 %
26.06.2017 07:58 17,6 C 18,9 C 17,8 C 86 % 0 lf 1011,8 hPa 0,0 l/m 0 min 0 min 38 W/m 18,8 km/h (3 Bft) 97,87 %
26.06.2017 08:00 17,6 C 18,9 C 17,8 C 86 % 0 lf 1011,8 hPa 0,0 l/m 0 min 0 min 40 W/m 14,6 km/h (3 Bft) 95,74 %
26.06.2017 08:02 17,6 C 18,9 C 18,3 C 86 % 0 lf 1011,9 hPa 0,0 l/m 0 min 0 min 41 W/m 14,6 km/h (3 Bft) 95,74 %
26.06.2017 08:04 17,6 C 18,9 C 18,3 C 86 % 0 lf 1011,9 hPa 0,0 l/m 0 min 0 min 40 W/m 16,7 km/h (3 Bft) 97,83 %
26.06.2017 08:06 17,7 C 18,9 C 18,3 C 86 % 0 lf 1011,9 hPa 0,0 l/m 0 min 0 min 40 W/m 23,0 km/h (4 Bft) 100,00 %
26.06.2017 08:08 17,7 C 18,9 C 18,3 C 86 % 0 lf 1011,9 hPa 0,0 l/m 0 min 0 min 39 W/m 14,6 km/h (3 Bft) 97,87 %
26.06.2017 08:10 17,7 C 18,9 C 18,3 C 86 % 0 lf 1012,0 hPa 0,0 l/m 0 min 0 min 39 W/m 20,9 km/h (4 Bft) 97,87 %
26.06.2017 08:12 17,7 C 18,9 C 18,3 C 86 % 0 lf 1012,0 hPa 0,0 l/m 0 min 0 min 39 W/m 14,6 km/h (3 Bft) 97,92 %
26.06.2017 08:14 17,7 C 18,9 C 18,3 C 86 % 0 lf 1012,0 hPa 0,0 l/m 0 min 0 min 39 W/m 12,6 km/h (3 Bft) 100,00 %
26.06.2017 08:16 17,8 C 18,9 C 18,3 C 86 % 0 lf 1012,0 hPa 0,0 l/m 0 min 0 min 38 W/m 14,6 km/h (3 Bft) 100,00 %
26.06.2017 08:18 17,8 C 18,9 C 18,3 C 86 % 0 lf 1012,0 hPa 0,0 l/m 0 min 0 min 37 W/m 16,7 km/h (3 Bft) 100,00 %
26.06.2017 08:20 17,8 C 18,9 C 17,8 C 85 % 0 lf 1012,0 hPa 0,0 l/m 0 min 0 min 37 W/m 20,9 km/h (4 Bft) 97,87 %
26.06.2017 08:22 17,8 C 18,3 C 17,8 C 85 % 0 lf 1012,0 hPa 0,0 l/m 0 min 0 min 37 W/m 23,0 km/h (4 Bft) 100,00 %
26.06.2017 08:24 17,8 C 18,3 C 17,8 C 85 % 1 lf 1012,1 hPa 0,0 l/m 0 min 0 min 36 W/m 18,8 km/h (3 Bft) 100,00 %
26.06.2017 08:26 17,8 C 18,3 C 17,2 C 85 % 0 lf 1012,1 hPa 0,0 l/m 0 min 0 min 36 W/m 20,9 km/h (4 Bft) 100,00 %
26.06.2017 08:28 17,8 C 18,3 C 17,2 C 85 % 0 lf 1012,1 hPa 0,0 l/m 0 min 0 min 36 W/m 12,6 km/h (3 Bft) 97,87 %
26.06.2017 08:30 17,8 C 17,8 C 17,2 C 85 % 0 lf 1012,1 hPa 0,0 l/m 0 min 0 min 35 W/m 18,8 km/h (3 Bft) 100,00 %
26.06.2017 08:32 17,7 C 17,8 C 17,2 C 85 % 0 lf 1012,1 hPa 0,0 l/m 0 min 0 min 35 W/m 20,9 km/h (4 Bft) 97,87 %
26.06.2017 08:34 17,7 C 17,8 C 17,2 C 85 % 0 lf 1012,1 hPa 0,0 l/m 0 min 0 min 36 W/m 16,7 km/h (3 Bft) 100,00 %
26.06.2017 08:36 17,7 C 17,8 C 17,2 C 85 % 0 lf 1012,1 hPa 0,0 l/m 0 min 0 min 36 W/m 18,8 km/h (3 Bft) 100,00 %
26.06.2017 08:38 17,7 C 17,8 C 17,2 C 85 % 0 lf 1012,1 hPa 0,0 l/m 0 min 0 min 36 W/m 18,8 km/h (3 Bft) 100,00 %
26.06.2017 08:40 17,7 C 17,8 C 17,2 C 85 % 0 lf 1012,2 hPa 0,0 l/m 0 min 0 min 35 W/m 20,9 km/h (4 Bft) 100,00 %
26.06.2017 08:42 17,7 C 17,8 C 16,7 C 85 % 2 lf 1012,2 hPa 0,0 l/m 0 min 0 min 35 W/m 16,7 km/h (3 Bft) 100,00 %
26.06.2017 08:44 17,7 C 17,2 C 16,7 C 86 % 9 lf 1012,3 hPa 0,0 l/m 0 min 2 min 35 W/m 12,6 km/h (3 Bft) 100,00 %
26.06.2017 08:46 17,7 C 17,2 C 16,1 C 86 % 12 lf 1012,2 hPa 0,0 l/m 0 min 2 min 35 W/m 14,6 km/h (3 Bft) 97,87 %
26.06.2017 08:48 17,7 C 16,7 C 16,1 C 86 % 14 lf 1012,3 hPa 0,0 l/m 0 min 2 min 35 W/m 12,6 km/h (3 Bft) 100,00 %
26.06.2017 08:50 17,7 C 16,7 C 15,6 C 86 % 14 lf 1012,3 hPa 0,0 l/m 0 min 2 min 35 W/m 14,6 km/h (3 Bft) 100,00 %
26.06.2017 08:52 17,6 C 16,7 C 15,6 C 87 % 15 lf 1012,3 hPa 0,0 l/m 0 min 2 min 35 W/m 12,6 km/h (3 Bft) 97,87 %
26.06.2017 08:54 17,6 C 16,7 C 15,6 C 87 % 15 lf 1012,3 hPa 0,0 l/m 0 min 2 min 35 W/m 12,6 km/h (3 Bft) 100,00 %
26.06.2017 08:56 17,6 C 16,7 C 15,0 C 87 % 15 lf 1012,3 hPa 0,0 l/m 0 min 2 min 35 W/m 14,6 km/h (3 Bft) 95,74 %
26.06.2017 08:58 17,5 C 16,1 C 15,0 C 87 % 15 lf 1012,3 hPa 0,0 l/m 0 min 2 min 36 W/m 14,6 km/h (3 Bft) 100,00 %
26.06.2017 09:00 17,5 C 16,1 C 15,6 C 88 % 15 lf 1012,4 hPa 0,0 l/m 0 min 2 min 38 W/m 12,6 km/h (3 Bft) 97,83 %
26.06.2017 09:02 17,4 C 16,7 C 15,6 C 88 % 15 lf 1012,4 hPa 0,0 l/m 0 min 0 min 39 W/m 14,6 km/h (3 Bft) 93,62 %
26.06.2017 09:04 17,4 C 17,2 C 16,1 C 89 % 15 lf 1012,4 hPa 0,0 l/m 0 min 0 min 42 W/m 14,6 km/h (3 Bft) 95,74 %
26.06.2017 09:06 17,4 C 18,3 C 16,7 C 89 % 15 lf 1012,3 hPa 0,0 l/m 0 min 0 min 45 W/m 12,6 km/h (3 Bft) 97,87 %
26.06.2017 09:08 17,5 C 19,4 C 16,7 C 90 % 15 lf 1012,3 hPa 0,0 l/m 0 min 0 min 48 W/m 12,6 km/h (3 Bft) 97,87 %
26.06.2017 09:10 17,5 C 20,0 C 16,7 C 90 % 15 lf 1012,3 hPa 0,0 l/m 0 min 0 min 46 W/m 16,7 km/h (3 Bft) 97,87 %
26.06.2017 09:12 17,6 C 21,7 C 16,7 C 90 % 11 lf 1012,3 hPa 0,0 l/m 0 min 0 min 48 W/m 12,6 km/h (3 Bft) 97,83 %
26.06.2017 09:14 17,6 C 23,3 C 17,2 C 90 % 0 lf 1012,3 hPa 0,0 l/m 0 min 0 min 54 W/m 16,7 km/h (3 Bft) 95,74 %
26.06.2017 09:16 17,7 C 23,9 C 17,8 C 90 % 0 lf 1012,3 hPa 0,0 l/m 0 min 0 min 58 W/m 23,0 km/h (4 Bft) 97,87 %
26.06.2017 09:18 17,8 C 23,3 C 17,8 C 90 % 0 lf 1012,3 hPa 0,0 l/m 0 min 0 min 48 W/m 16,7 km/h (3 Bft) 95,74 %
26.06.2017 09:20 17,8 C 22,2 C 17,8 C 90 % 0 lf 1012,3 hPa 0,0 l/m 0 min 0 min 44 W/m 16,7 km/h (3 Bft) 91,49 %
26.06.2017 09:22 17,9 C 23,9 C 18,3 C 90 % 0 lf 1012,3 hPa 0,0 l/m 0 min 0 min 52 W/m 14,6 km/h (3 Bft) 93,62 %
26.06.2017 09:24 17,9 C 24,4 C 18,9 C 90 % 0 lf 1012,3 hPa 0,0 l/m 0 min 0 min 56 W/m 10,5 km/h (2 Bft) 95,65 %
26.06.2017 09:26 18,0 C 23,3 C 18,9 C 89 % 0 lf 1012,3 hPa 0,0 l/m 0 min 0 min 45 W/m 10,5 km/h (2 Bft) 95,74 %
26.06.2017 09:28 18,0 C 21,7 C 18,9 C 89 % 0 lf 1012,4 hPa 0,0 l/m 0 min 0 min 40 W/m 18,8 km/h (3 Bft) 93,62 %
26.06.2017 09:30 18,0 C 20,6 C 18,9 C 88 % 0 lf 1012,4 hPa 0,0 l/m 0 min 0 min 43 W/m 18,8 km/h (3 Bft) 91,49 %
26.06.2017 09:32 18,1 C 22,8 C 18,9 C 88 % 0 lf 1012,4 hPa 0,0 l/m 0 min 0 min 44 W/m 16,7 km/h (3 Bft) 93,75 %
26.06.2017 09:34 18,1 C 24,4 C 19,4 C 88 % 0 lf 1012,4 hPa 0,0 l/m 0 min 0 min 54 W/m 12,6 km/h (3 Bft) 93,62 %
26.06.2017 09:36 18,2 C 26,1 C 20,6 C 87 % 0 lf 1012,4 hPa 0,0 l/m 0 min 0 min 60 W/m 14,6 km/h (3 Bft) 89,13 %
26.06.2017 09:38 18,3 C 25,6 C 21,1 C 87 % 0 lf 1012,4 hPa 0,0 l/m 0 min 0 min 57 W/m 12,6 km/h (3 Bft) 91,49 %
26.06.2017 09:40 18,4 C 24,4 C 21,1 C 86 % 0 lf 1012,4 hPa 0,0 l/m 0 min 0 min 47 W/m 10,5 km/h (2 Bft) 93,62 %
26.06.2017 09:42 18,4 C 23,9 C 20,6 C 85 % 0 lf 1012,4 hPa 0,0 l/m 0 min 0 min 44 W/m 8,4 km/h (2 Bft) 87,50 %
26.06.2017 09:44 18,5 C 22,8 C 20,0 C 85 % 0 lf 1012,5 hPa 0,0 l/m 0 min 0 min 41 W/m 16,7 km/h (3 Bft) 93,62 %
26.06.2017 09:46 18,6 C 21,7 C 20,0 C 84 % 0 lf 1012,4 hPa 0,0 l/m 0 min 0 min 40 W/m 12,6 km/h (3 Bft) 89,36 %
26.06.2017 09:48 18,6 C 21,1 C 19,4 C 84 % 0 lf 1012,4 hPa 0,0 l/m 0 min 0 min 39 W/m 12,6 km/h (3 Bft) 91,30 %
26.06.2017 09:50 18,7 C 21,1 C 19,4 C 84 % 0 lf 1012,5 hPa 0,0 l/m 0 min 0 min 40 W/m 14,6 km/h (3 Bft) 95,74 %
26.06.2017 09:52 18,7 C 21,1 C 20,0 C 83 % 0 lf 1012,4 hPa 0,0 l/m 0 min 0 min 44 W/m 14,6 km/h (3 Bft) 93,62 %
26.06.2017 09:54 18,7 C 22,8 C 20,6 C 83 % 0 lf 1012,4 hPa 0,0 l/m 0 min 0 min 48 W/m 8,4 km/h (2 Bft) 89,36 %
26.06.2017 09:56 18,8 C 26,1 C 23,3 C 83 % 0 lf 1012,4 hPa 0,0 l/m 0 min 0 min 59 W/m 12,6 km/h (3 Bft) 93,62 %
26.06.2017 09:58 18,9 C 27,2 C 24,4 C 83 % 0 lf 1012,4 hPa 0,0 l/m 0 min 0 min 66 W/m 16,7 km/h (3 Bft) 93,62 %
26.06.2017 10:00 19,0 C 26,7 C 23,9 C 83 % 0 lf 1012,4 hPa 0,0 l/m 0 min 0 min 56 W/m 16,7 km/h (3 Bft) 93,48 %
26.06.2017 10:02 19,2 C 26,1 C 23,3 C 82 % 0 lf 1012,4 hPa 0,0 l/m 0 min 0 min 49 W/m 14,6 km/h (3 Bft) 91,49 %
26.06.2017 10:04 19,3 C 26,1 C 22,8 C 82 % 0 lf 1012,4 hPa 0,0 l/m 0 min 0 min 48 W/m 14,6 km/h (3 Bft) 93,62 %
26.06.2017 10:06 19,3 C 25,6 C 22,8 C 81 % 0 lf 1012,4 hPa 0,0 l/m 0 min 0 min 47 W/m 18,8 km/h (3 Bft) 91,49 %
26.06.2017 10:08 19,3 C 25,0 C 21,7 C 80 % 0 lf 1012,5 hPa 0,0 l/m 0 min 0 min 43 W/m 16,7 km/h (3 Bft) 93,62 %
26.06.2017 10:10 19,4 C 23,9 C 21,1 C 80 % 0 lf 1012,6 hPa 0,0 l/m 0 min 0 min 44 W/m 16,7 km/h (3 Bft) 91,30 %
26.06.2017 10:12 19,4 C 23,9 C 21,1 C 79 % 0 lf 1012,6 hPa 0,0 l/m 0 min 0 min 47 W/m 14,6 km/h (3 Bft) 91,49 %
26.06.2017 10:14 19,4 C 25,6 C 22,8 C 80 % 0 lf 1012,6 hPa 0,0 l/m 0 min 0 min 48 W/m 14,6 km/h (3 Bft) 95,74 %
26.06.2017 10:16 19,4 C 25,0 C 23,3 C 80 % 0 lf 1012,6 hPa 0,0 l/m 0 min 0 min 64 W/m 6,3 km/h (2 Bft) 95,74 %
26.06.2017 10:18 19,5 C 25,0 C 23,3 C 80 % 0 lf 1012,7 hPa 0,0 l/m 0 min 0 min 50 W/m 18,8 km/h (3 Bft) 95,74 %
26.06.2017 10:20 19,6 C 24,4 C 22,8 C 79 % 0 lf 1012,8 hPa 0,0 l/m 0 min 0 min 49 W/m 12,6 km/h (3 Bft) 100,00 %
26.06.2017 10:22 19,6 C 23,9 C 21,7 C 78 % 0 lf 1012,8 hPa 0,0 l/m 0 min 0 min 43 W/m 12,6 km/h (3 Bft) 97,83 %
26.06.2017 10:24 19,6 C 23,9 C 21,7 C 78 % 0 lf 1012,7 hPa 0,0 l/m 0 min 0 min 44 W/m 14,6 km/h (3 Bft) 95,74 %
26.06.2017 10:26 19,6 C 26,1 C 22,8 C 77 % 0 lf 1012,8 hPa 0,0 l/m 0 min 0 min 48 W/m 16,7 km/h (3 Bft) 95,74 %
26.06.2017 10:28 19,7 C 27,8 C 24,4 C 76 % 0 lf 1012,6 hPa 0,0 l/m 0 min 0 min 59 W/m 10,5 km/h (2 Bft) 100,00 %
26.06.2017 10:30 19,8 C 27,2 C 24,4 C 76 % 0 lf 1012,7 hPa 0,0 l/m 0 min 0 min 24 W/m 14,6 km/h (3 Bft) 100,00 %
26.06.2017 10:32 19,9 C 27,8 C 25,0 C 76 % 0 lf 1012,7 hPa 0,0 l/m 0 min 0 min 26 W/m 18,8 km/h (3 Bft) 100,00 %
26.06.2017 10:34 20,0 C 28,3 C 25,0 C 75 % 0 lf 1012,7 hPa 0,0 l/m 0 min 0 min 26 W/m 14,6 km/h (3 Bft) 97,87 %
26.06.2017 10:36 20,1 C 26,7 C 23,9 C 74 % 0 lf 1012,7 hPa 0,0 l/m 0 min 0 min 26 W/m 14,6 km/h (3 Bft) 100,00 %
26.06.2017 10:38 20,2 C 27,2 C 24,4 C 74 % 0 lf 1012,7 hPa 0,0 l/m 0 min 0 min 15 W/m 12,6 km/h (3 Bft) 100,00 %
26.06.2017 10:40 20,3 C 28,9 C 26,1 C 74 % 0 lf 1012,7 hPa 0,0 l/m 0 min 0 min 39 W/m 12,6 km/h (3 Bft) 100,00 %
26.06.2017 10:42 20,4 C 30,6 C 26,7 C 74 % 0 lf 1012,7 hPa 0,0 l/m 0 min 0 min 40 W/m 20,9 km/h (4 Bft) 97,87 %
26.06.2017 10:44 20,4 C 30,0 C 26,1 C 72 % 0 lf 1012,7 hPa 0,0 l/m 0 min 0 min 41 W/m 16,7 km/h (3 Bft) 100,00 %
26.06.2017 10:46 20,6 C 30,6 C 26,7 C 72 % 0 lf 1012,7 hPa 0,0 l/m 2 min 0 min 620 W/m 12,6 km/h (3 Bft) 97,87 %
26.06.2017 10:48 20,7 C 29,4 C 25,6 C 71 % 0 lf 1012,7 hPa 0,0 l/m 2 min 0 min 958 W/m 20,9 km/h (4 Bft) 100,00 %
26.06.2017 10:50 20,8 C 31,1 C 27,2 C 71 % 0 lf 1012,7 hPa 0,0 l/m 2 min 0 min 758 W/m 16,7 km/h (3 Bft) 100,00 %
26.06.2017 10:52 21,0 C 31,7 C 27,8 C 71 % 0 lf 1012,6 hPa 0,0 l/m 2 min 0 min 761 W/m 14,6 km/h (3 Bft) 97,83 %
26.06.2017 10:54 21,1 C 32,2 C 28,3 C 70 % 0 lf 1012,6 hPa 0,0 l/m 2 min 0 min 765 W/m 12,6 km/h (3 Bft) 100,00 %
26.06.2017 10:56 21,3 C 31,7 C 28,9 C 70 % 0 lf 1012,6 hPa 0,0 l/m 2 min 0 min 768 W/m 16,7 km/h (3 Bft) 100,00 %
26.06.2017 10:58 21,6 C 32,8 C 30,0 C 69 % 0 lf 1012,6 hPa 0,0 l/m 2 min 0 min 772 W/m 14,6 km/h (3 Bft) 100,00 %
26.06.2017 11:00 21,7 C 32,2 C 28,9 C 67 % 0 lf 1012,6 hPa 0,0 l/m 2 min 0 min 775 W/m 18,8 km/h (3 Bft) 100,00 %
26.06.2017 11:02 21,9 C 32,2 C 28,9 C 66 % 0 lf 1012,6 hPa 0,0 l/m 2 min 0 min 778 W/m 16,7 km/h (3 Bft) 95,74 %
26.06.2017 11:04 22,1 C 32,8 C 30,0 C 66 % 0 lf 1012,6 hPa 0,0 l/m 2 min 0 min 971 W/m 16,7 km/h (3 Bft) 97,83 %
26.06.2017 11:06 22,2 C 32,8 C 29,4 C 65 % 0 lf 1012,6 hPa 0,0 l/m 2 min 0 min 908 W/m 18,8 km/h (3 Bft) 100,00 %
26.06.2017 11:08 22,3 C 33,9 C 30,0 C 66 % 0 lf 1012,6 hPa 0,0 l/m 2 min 0 min 890 W/m 23,0 km/h (4 Bft) 97,87 %
26.06.2017 11:10 22,5 C 33,9 C 30,0 C 65 % 0 lf 1012,6 hPa 0,0 l/m 2 min 0 min 874 W/m 14,6 km/h (3 Bft) 100,00 %
26.06.2017 11:12 22,6 C 32,2 C 30,0 C 64 % 0 lf 1012,6 hPa 0,0 l/m 2 min 0 min 898 W/m 16,7 km/h (3 Bft) 100,00 %
26.06.2017 11:14 22,7 C 32,8 C 30,6 C 64 % 0 lf 1012,7 hPa 0,0 l/m 2 min 0 min 926 W/m 18,8 km/h (3 Bft) 100,00 %
26.06.2017 11:16 22,8 C 31,7 C 29,4 C 62 % 0 lf 1012,6 hPa 0,0 l/m 2 min 0 min 912 W/m 16,7 km/h (3 Bft) 100,00 %
26.06.2017 11:18 22,8 C 32,2 C 30,6 C 63 % 0 lf 1012,6 hPa 0,0 l/m 2 min 0 min 909 W/m 12,6 km/h (3 Bft) 93,62 %
26.06.2017 11:20 22,9 C 30,0 C 28,9 C 63 % 0 lf 1012,6 hPa 0,0 l/m 2 min 0 min 909 W/m 16,7 km/h (3 Bft) 100,00 %
26.06.2017 11:22 22,9 C 29,4 C 28,3 C 62 % 0 lf 1012,6 hPa 0,0 l/m 2 min 0 min 909 W/m 27,2 km/h (4 Bft) 100,00 %
26.06.2017 11:24 22,9 C 31,7 C 30,0 C 63 % 0 lf 1012,6 hPa 0,0 l/m 2 min 0 min 811 W/m 16,7 km/h (3 Bft) 97,87 %
26.06.2017 11:26 22,9 C 31,1 C 30,0 C 63 % 0 lf 1012,6 hPa 0,0 l/m 2 min 0 min 814 W/m 20,9 km/h (4 Bft) 100,00 %
26.06.2017 11:28 22,9 C 30,0 C 28,9 C 62 % 0 lf 1012,6 hPa 0,0 l/m 2 min 0 min 817 W/m 16,7 km/h (3 Bft) 100,00 %
26.06.2017 11:30 22,9 C 28,3 C 27,8 C 62 % 0 lf 1012,6 hPa 0,0 l/m 2 min 0 min 468 W/m 12,6 km/h (3 Bft) 100,00 %
26.06.2017 11:32 22,9 C 27,2 C 27,2 C 62 % 0 lf 1012,5 hPa 0,0 l/m 2 min 0 min 424 W/m 14,6 km/h (3 Bft) 100,00 %
26.06.2017 11:34 22,9 C 28,9 C 27,2 C 63 % 0 lf 1012,6 hPa 0,0 l/m 2 min 0 min 549 W/m 18,8 km/h (3 Bft) 97,87 %
26.06.2017 11:36 23,0 C 28,3 C 26,1 C 62 % 0 lf 1012,5 hPa 0,0 l/m 2 min 0 min 568 W/m 20,9 km/h (4 Bft) 97,87 %
26.06.2017 11:38 22,8 C 26,7 C 25,6 C 61 % 0 lf 1012,5 hPa 0,0 l/m 2 min 0 min 415 W/m 23,0 km/h (4 Bft) 97,83 %
26.06.2017 11:40 22,7 C 26,7 C 25,6 C 62 % 0 lf 1012,4 hPa 0,0 l/m 2 min 0 min 437 W/m 14,6 km/h (3 Bft) 97,87 %
26.06.2017 11:42 22,7 C 25,6 C 25,6 C 62 % 0 lf 1012,6 hPa 0,0 l/m 0 min 0 min 386 W/m 20,9 km/h (4 Bft) 96,23 %
26.06.2017 11:44 22,6 C 25,6 C 25,6 C 62 % 0 lf 1012,6 hPa 0,0 l/m 0 min 0 min 384 W/m 18,8 km/h (3 Bft) 95,74 %
26.06.2017 11:46 22,6 C 27,2 C 26,7 C 63 % 0 lf 1012,6 hPa 0,0 l/m 2 min 0 min 459 W/m 18,8 km/h (3 Bft) 97,87 %
26.06.2017 11:48 22,6 C 28,9 C 27,8 C 64 % 0 lf 1012,5 hPa 0,0 l/m 2 min 0 min 842 W/m 20,9 km/h (4 Bft) 97,87 %
26.06.2017 11:50 22,6 C 30,0 C 28,3 C 63 % 0 lf 1012,5 hPa 0,0 l/m 2 min 0 min 845 W/m 16,7 km/h (3 Bft) 97,87 %
26.06.2017 11:52 22,7 C 30,6 C 28,9 C 64 % 0 lf 1012,6 hPa 0,0 l/m 2 min 0 min 1029 W/m 10,5 km/h (2 Bft) 89,36 %
26.06.2017 11:54 22,7 C 30,0 C 27,2 C 62 % 0 lf 1012,5 hPa 0,0 l/m 2 min 0 min 780 W/m 14,6 km/h (3 Bft) 95,65 %
26.06.2017 11:56 22,8 C 28,9 C 27,2 C 62 % 0 lf 1012,5 hPa 0,0 l/m 2 min 0 min 658 W/m 18,8 km/h (3 Bft) 93,62 %
26.06.2017 11:58 22,8 C 27,8 C 26,7 C 62 % 0 lf 1012,5 hPa 0,0 l/m 0 min 0 min 322 W/m 16,7 km/h (3 Bft) 95,74 %
26.06.2017 12:00 22,7 C 26,1 C 25,6 C 61 % 0 lf 1012,6 hPa 0,0 l/m 0 min 0 min 310 W/m 23,0 km/h (4 Bft) 93,62 %
26.06.2017 12:02 22,7 C 25,6 C 24,4 C 61 % 0 lf 1012,6 hPa 0,0 l/m 0 min 0 min 259 W/m 16,7 km/h (3 Bft) 95,74 %
26.06.2017 12:04 22,7 C 28,3 C 26,1 C 63 % 0 lf 1012,6 hPa 0,0 l/m 2 min 0 min 443 W/m 18,8 km/h (3 Bft) 95,74 %
26.06.2017 12:06 22,7 C 30,0 C 27,2 C 61 % 0 lf 1012,6 hPa 0,0 l/m 2 min 0 min 534 W/m 14,6 km/h (3 Bft) 97,83 %
26.06.2017 12:10 22,7 C 30,6 C 30,0 C 60 % 0 lf 1012,6 hPa 0,0 l/m 4 min 0 min 904 W/m 23,0 km/h (4 Bft) 93,98 %
26.06.2017 12:12 22,8 C 31,1 C 30,0 C 60 % 0 lf 1012,6 hPa 0,0 l/m 2 min 0 min 919 W/m 18,8 km/h (3 Bft) 95,74 %
26.06.2017 12:14 22,8 C 31,1 C 28,9 C 59 % 0 lf 1012,6 hPa 0,0 l/m 2 min 0 min 966 W/m 23,0 km/h (4 Bft) 91,49 %
26.06.2017 12:16 22,8 C 29,4 C 27,8 C 59 % 0 lf 1012,5 hPa 0,0 l/m 2 min 0 min 979 W/m 20,9 km/h (4 Bft) 96,00 %
26.06.2017 12:18 22,8 C 28,9 C 27,2 C 59 % 0 lf 1012,6 hPa 0,0 l/m 2 min 0 min 1025 W/m 20,9 km/h (4 Bft) 93,62 %
26.06.2017 12:20 22,8 C 30,0 C 28,9 C 59 % 0 lf 1012,5 hPa 0,0 l/m 2 min 0 min 875 W/m 16,7 km/h (3 Bft) 97,83 %
26.06.2017 12:22 22,9 C 31,7 C 30,0 C 60 % 0 lf 1012,5 hPa 0,0 l/m 2 min 0 min 1039 W/m 18,8 km/h (3 Bft) 97,96 %
26.06.2017 12:24 23,0 C 32,2 C 29,4 C 59 % 0 lf 1012,6 hPa 0,0 l/m 2 min 0 min 745 W/m 14,6 km/h (3 Bft) 97,87 %
26.06.2017 12:26 23,2 C 32,8 C 30,6 C 60 % 0 lf 1012,6 hPa 0,0 l/m 2 min 0 min 880 W/m 18,8 km/h (3 Bft) 91,30 %
26.06.2017 12:28 23,3 C 33,3 C 31,1 C 59 % 0 lf 1012,7 hPa 0,0 l/m 2 min 0 min 881 W/m 20,9 km/h (4 Bft) 95,74 %
26.06.2017 12:30 23,5 C 32,8 C 30,6 C 57 % 0 lf 1012,7 hPa 0,0 l/m 2 min 0 min 883 W/m 20,9 km/h (4 Bft) 100,00 %
26.06.2017 12:32 23,6 C 32,2 C 30,6 C 56 % 0 lf 1012,7 hPa 0,0 l/m 2 min 0 min 884 W/m 16,7 km/h (3 Bft) 100,00 %
26.06.2017 12:34 23,6 C 32,8 C 30,6 C 57 % 0 lf 1012,7 hPa 0,0 l/m 2 min 0 min 886 W/m 23,0 km/h (4 Bft) 100,00 %
26.06.2017 12:36 23,7 C 32,2 C 29,4 C 56 % 0 lf 1012,8 hPa 0,0 l/m 2 min 0 min 887 W/m 25,1 km/h (4 Bft) 97,87 %
26.06.2017 12:38 23,7 C 32,2 C 30,0 C 57 % 0 lf 1012,8 hPa 0,0 l/m 2 min 0 min 889 W/m 18,8 km/h (3 Bft) 97,83 %
26.06.2017 12:40 23,8 C 32,2 C 30,0 C 56 % 0 lf 1012,7 hPa 0,0 l/m 2 min 0 min 890 W/m 18,8 km/h (3 Bft) 97,87 %
26.06.2017 12:42 23,9 C 31,7 C 30,0 C 58 % 0 lf 1012,7 hPa 0,0 l/m 2 min 0 min 891 W/m 16,7 km/h (3 Bft) 95,74 %
26.06.2017 12:44 24,0 C 32,8 C 30,0 C 58 % 0 lf 1012,7 hPa 0,0 l/m 2 min 0 min 892 W/m 16,7 km/h (3 Bft) 93,62 %
26.06.2017 12:46 24,1 C 32,8 C 29,4 C 56 % 0 lf 1012,6 hPa 0,0 l/m 2 min 0 min 893 W/m 16,7 km/h (3 Bft) 95,74 %
26.06.2017 12:48 24,2 C 31,1 C 28,9 C 57 % 0 lf 1012,7 hPa 0,0 l/m 2 min 0 min 895 W/m 20,9 km/h (4 Bft) 97,83 %
26.06.2017 12:50 24,2 C 29,4 C 27,2 C 55 % 0 lf 1012,7 hPa 0,0 l/m 2 min 0 min 896 W/m 27,2 km/h (4 Bft) 93,62 %
26.06.2017 12:52 24,2 C 28,9 C 26,7 C 55 % 0 lf 1012,8 hPa 0,0 l/m 2 min 0 min 897 W/m 20,9 km/h (4 Bft) 93,62 %
26.06.2017 12:54 24,1 C 30,0 C 26,7 C 55 % 0 lf 1012,8 hPa 0,0 l/m 2 min 0 min 898 W/m 23,0 km/h (4 Bft) 93,62 %
26.06.2017 12:56 24,1 C 31,1 C 27,2 C 55 % 0 lf 1012,8 hPa 0,0 l/m 2 min 0 min 1160 W/m 10,5 km/h (2 Bft) 91,49 %
26.06.2017 12:58 24,1 C 31,1 C 27,8 C 57 % 0 lf 1012,8 hPa 0,0 l/m 2 min 0 min 1011 W/m 12,6 km/h (3 Bft) 95,74 %
26.06.2017 13:00 24,2 C 31,7 C 28,3 C 56 % 0 lf 1012,7 hPa 0,0 l/m 2 min 0 min 1024 W/m 14,6 km/h (3 Bft) 91,30 %
26.06.2017 13:02 24,3 C 31,7 C 28,9 C 55 % 0 lf 1012,7 hPa 0,0 l/m 2 min 0 min 1044 W/m 25,1 km/h (4 Bft) 95,74 %
26.06.2017 13:04 24,3 C 30,6 C 28,3 C 55 % 0 lf 1012,8 hPa 0,0 l/m 2 min 0 min 982 W/m 14,6 km/h (3 Bft) 93,62 %
26.06.2017 13:06 24,2 C 27,8 C 26,7 C 54 % 0 lf 1012,8 hPa 0,0 l/m 0 min 0 min 223 W/m 18,8 km/h (3 Bft) 93,62 %
26.06.2017 13:08 24,2 C 27,2 C 26,7 C 54 % 0 lf 1012,8 hPa 0,0 l/m 0 min 0 min 230 W/m 18,8 km/h (3 Bft) 95,74 %
26.06.2017 13:10 24,1 C 28,9 C 27,8 C 53 % 0 lf 1012,7 hPa 0,0 l/m 2 min 0 min 639 W/m 23,0 km/h (4 Bft) 95,74 %
26.06.2017 13:12 24,1 C 30,0 C 28,9 C 54 % 0 lf 1012,8 hPa 0,0 l/m 2 min 0 min 1011 W/m 18,8 km/h (3 Bft) 95,65 %
26.06.2017 13:14 24,1 C 31,1 C 28,9 C 54 % 0 lf 1012,8 hPa 0,0 l/m 2 min 0 min 971 W/m 20,9 km/h (4 Bft) 95,74 %
26.06.2017 13:16 24,0 C 31,7 C 28,9 C 54 % 0 lf 1012,7 hPa 0,0 l/m 2 min 0 min 883 W/m 20,9 km/h (4 Bft) 95,74 %
26.06.2017 13:18 24,1 C 32,2 C 29,4 C 54 % 0 lf 1012,7 hPa 0,0 l/m 2 min 0 min 914 W/m 20,9 km/h (4 Bft) 89,36 %
26.06.2017 13:20 24,1 C 32,2 C 28,9 C 54 % 0 lf 1012,8 hPa 0,0 l/m 2 min 0 min 1010 W/m 16,7 km/h (3 Bft) 93,62 %
26.06.2017 13:22 24,2 C 32,8 C 28,3 C 54 % 0 lf 1012,7 hPa 0,0 l/m 2 min 0 min 1055 W/m 16,7 km/h (3 Bft) 93,62 %
26.06.2017 13:24 24,2 C 32,2 C 28,9 C 55 % 0 lf 1012,7 hPa 0,0 l/m 2 min 0 min 1037 W/m 18,8 km/h (3 Bft) 95,65 %
26.06.2017 13:26 24,3 C 32,2 C 28,9 C 54 % 0 lf 1012,7 hPa 0,0 l/m 2 min 0 min 1033 W/m 27,2 km/h (4 Bft) 95,74 %
26.06.2017 13:28 24,4 C 30,0 C 27,8 C 53 % 0 lf 1012,7 hPa 0,0 l/m 2 min 0 min 983 W/m 20,9 km/h (4 Bft) 97,83 %
26.06.2017 13:30 24,4 C 29,4 C 27,8 C 53 % 0 lf 1012,7 hPa 0,0 l/m 2 min 0 min 656 W/m 12,6 km/h (3 Bft) 95,74 %
26.06.2017 13:32 24,4 C 28,3 C 26,7 C 53 % 0 lf 1012,7 hPa 0,0 l/m 2 min 0 min 522 W/m 14,6 km/h (3 Bft) 95,74 %
26.06.2017 13:34 24,3 C 27,2 C 26,1 C 53 % 0 lf 1012,7 hPa 0,0 l/m 2 min 0 min 502 W/m 20,9 km/h (4 Bft) 95,74 %
26.06.2017 13:36 24,2 C 25,6 C 25,6 C 52 % 0 lf 1012,7 hPa 0,0 l/m 2 min 0 min 438 W/m 18,8 km/h (3 Bft) 95,65 %
26.06.2017 13:38 24,2 C 26,7 C 25,6 C 54 % 0 lf 1012,8 hPa 0,0 l/m 0 min 0 min 415 W/m 14,6 km/h (3 Bft) 100,00 %
26.06.2017 13:40 24,1 C 26,1 C 25,0 C 54 % 0 lf 1012,8 hPa 0,0 l/m 0 min 0 min 303 W/m 10,5 km/h (2 Bft) 100,00 %
26.06.2017 13:42 24,0 C 27,2 C 25,0 C 53 % 0 lf 1012,8 hPa 0,0 l/m 0 min 0 min 240 W/m 12,6 km/h (3 Bft) 100,00 %
26.06.2017 13:44 24,0 C 30,0 C 25,6 C 56 % 0 lf 1012,7 hPa 0,0 l/m 2 min 0 min 888 W/m 20,9 km/h (4 Bft) 100,00 %
26.06.2017 13:46 24,1 C 31,1 C 26,7 C 54 % 0 lf 1012,8 hPa 0,0 l/m 2 min 0 min 1019 W/m 18,8 km/h (3 Bft) 100,00 %
26.06.2017 13:48 24,1 C 31,7 C 27,2 C 53 % 0 lf 1012,7 hPa 0,0 l/m 2 min 0 min 1053 W/m 18,8 km/h (3 Bft) 97,83 %
26.06.2017 13:50 24,3 C 33,3 C 28,3 C 54 % 0 lf 1012,7 hPa 0,0 l/m 2 min 0 min 1112 W/m 10,5 km/h (2 Bft) 100,00 %
26.06.2017 13:52 24,4 C 33,9 C 28,3 C 54 % 0 lf 1012,7 hPa 0,0 l/m 2 min 0 min 1052 W/m 14,6 km/h (3 Bft) 100,00 %
26.06.2017 13:54 24,6 C 33,3 C 28,9 C 53 % 0 lf 1012,6 hPa 0,0 l/m 2 min 0 min 737 W/m 16,7 km/h (3 Bft) 100,00 %
26.06.2017 13:56 24,8 C 33,9 C 28,9 C 53 % 0 lf 1012,8 hPa 0,0 l/m 2 min 0 min 1024 W/m 16,7 km/h (3 Bft) 100,00 %
26.06.2017 13:58 24,9 C 33,9 C 28,9 C 52 % 0 lf 1012,8 hPa 0,0 l/m 2 min 0 min 1074 W/m 12,6 km/h (3 Bft) 100,00 %
26.06.2017 14:00 25,1 C 31,1 C 28,3 C 51 % 0 lf 1012,7 hPa 0,0 l/m 2 min 0 min 1081 W/m 25,1 km/h (4 Bft) 97,83 %
26.06.2017 14:02 25,1 C 28,3 C 26,7 C 49 % 0 lf 1012,7 hPa 0,0 l/m 0 min 0 min 379 W/m 16,7 km/h (3 Bft) 95,74 %
26.06.2017 14:04 25,0 C 27,8 C 26,1 C 49 % 0 lf 1012,7 hPa 0,0 l/m 0 min 0 min 276 W/m 16,7 km/h (3 Bft) 97,87 %
26.06.2017 14:06 24,8 C 27,2 C 26,1 C 49 % 0 lf 1012,8 hPa 0,0 l/m 0 min 0 min 297 W/m 20,9 km/h (4 Bft) 95,74 %
26.06.2017 14:08 24,8 C 29,4 C 27,2 C 51 % 0 lf 1012,7 hPa 0,0 l/m 2 min 0 min 645 W/m 14,6 km/h (3 Bft) 97,87 %
26.06.2017 14:10 24,8 C 30,0 C 28,9 C 51 % 0 lf 1012,8 hPa 0,0 l/m 2 min 0 min 1016 W/m 20,9 km/h (4 Bft) 95,74 %
26.06.2017 14:12 24,7 C 29,4 C 28,3 C 50 % 0 lf 1012,7 hPa 0,0 l/m 2 min 0 min 1005 W/m 25,1 km/h (4 Bft) 93,48 %
26.06.2017 14:14 24,5 C 30,0 C 29,4 C 51 % 0 lf 1012,8 hPa 0,0 l/m 2 min 0 min 1005 W/m 20,9 km/h (4 Bft) 93,62 %
26.06.2017 14:16 24,4 C 27,8 C 27,8 C 51 % 0 lf 1012,8 hPa 0,0 l/m 2 min 0 min 847 W/m 20,9 km/h (4 Bft) 93,62 %
26.06.2017 14:18 24,3 C 28,3 C 28,3 C 51 % 0 lf 1012,8 hPa 0,0 l/m 0 min 0 min 261 W/m 20,9 km/h (4 Bft) 95,74 %
26.06.2017 14:20 24,3 C 28,3 C 28,9 C 50 % 0 lf 1012,8 hPa 0,0 l/m 2 min 0 min 966 W/m 23,0 km/h (4 Bft) 95,74 %
26.06.2017 14:22 24,2 C 27,2 C 27,2 C 51 % 0 lf 1012,8 hPa 0,0 l/m 2 min 0 min 1011 W/m 18,8 km/h (3 Bft) 93,48 %
26.06.2017 14:24 24,1 C 26,7 C 26,1 C 51 % 0 lf 1012,7 hPa 0,0 l/m 2 min 0 min 453 W/m 12,6 km/h (3 Bft) 93,62 %
26.06.2017 14:26 23,9 C 26,1 C 26,1 C 51 % 0 lf 1012,7 hPa 0,0 l/m 0 min 0 min 284 W/m 14,6 km/h (3 Bft) 93,62 %
26.06.2017 14:28 23,8 C 25,6 C 25,6 C 51 % 0 lf 1012,7 hPa 0,0 l/m 0 min 0 min 262 W/m 12,6 km/h (3 Bft) 95,74 %
26.06.2017 14:30 23,8 C 27,8 C 28,3 C 52 % 0 lf 1012,8 hPa 0,0 l/m 2 min 0 min 552 W/m 18,8 km/h (3 Bft) 93,62 %
26.06.2017 14:32 23,8 C 29,4 C 31,1 C 54 % 0 lf 1012,7 hPa 0,0 l/m 2 min 0 min 985 W/m 18,8 km/h (3 Bft) 95,74 %
26.06.2017 14:34 23,8 C 30,0 C 31,7 C 52 % 0 lf 1012,7 hPa 0,0 l/m 2 min 0 min 957 W/m 16,7 km/h (3 Bft) 95,65 %
26.06.2017 14:36 23,9 C 30,6 C 32,8 C 52 % 0 lf 1012,6 hPa 0,0 l/m 2 min 0 min 960 W/m 16,7 km/h (3 Bft) 93,62 %
26.06.2017 14:38 23,9 C 30,6 C 32,8 C 51 % 0 lf 1012,6 hPa 0,0 l/m 2 min 0 min 967 W/m 16,7 km/h (3 Bft) 95,74 %
26.06.2017 14:40 23,9 C 31,1 C 33,3 C 51 % 0 lf 1012,5 hPa 0,0 l/m 2 min 0 min 968 W/m 16,7 km/h (3 Bft) 95,74 %
26.06.2017 14:42 24,1 C 31,1 C 34,4 C 53 % 0 lf 1012,6 hPa 0,0 l/m 2 min 0 min 942 W/m 18,8 km/h (3 Bft) 95,74 %
26.06.2017 14:44 24,1 C 30,6 C 34,4 C 53 % 0 lf 1012,5 hPa 0,0 l/m 2 min 0 min 875 W/m 27,2 km/h (4 Bft) 93,62 %
26.06.2017 14:46 24,2 C 29,4 C 32,2 C 51 % 0 lf 1012,5 hPa 0,0 l/m 2 min 0 min 990 W/m 18,8 km/h (3 Bft) 97,83 %
26.06.2017 14:48 24,2 C 30,0 C 32,8 C 51 % 0 lf 1012,6 hPa 0,0 l/m 2 min 0 min 988 W/m 20,9 km/h (4 Bft) 95,74 %
26.06.2017 14:50 24,2 C 28,3 C 31,1 C 52 % 0 lf 1012,6 hPa 0,0 l/m 2 min 0 min 986 W/m 20,9 km/h (4 Bft) 97,87 %
26.06.2017 14:52 24,2 C 28,3 C 30,6 C 52 % 0 lf 1012,6 hPa 0,0 l/m 2 min 0 min 435 W/m 14,6 km/h (3 Bft) 100,00 %
26.06.2017 14:54 24,2 C 27,8 C 30,0 C 52 % 0 lf 1012,6 hPa 0,0 l/m 0 min 0 min 257 W/m 14,6 km/h (3 Bft) 100,00 %
26.06.2017 14:56 24,2 C 27,2 C 28,9 C 51 % 0 lf 1012,6 hPa 0,0 l/m 0 min 0 min 240 W/m 16,7 km/h (3 Bft) 100,00 %
26.06.2017 14:58 24,2 C 27,2 C 28,9 C 50 % 0 lf 1012,6 hPa 0,0 l/m 0 min 0 min 368 W/m 14,6 km/h (3 Bft) 95,74 %
26.06.2017 15:00 24,1 C 28,3 C 30,6 C 50 % 0 lf 1012,6 hPa 0,0 l/m 2 min 0 min 786 W/m 18,8 km/h (3 Bft) 100,00 %
26.06.2017 15:02 24,0 C 28,3 C 30,0 C 50 % 0 lf 1012,6 hPa 0,0 l/m 2 min 0 min 599 W/m 14,6 km/h (3 Bft) 100,00 %
26.06.2017 15:04 23,9 C 28,9 C 31,1 C 51 % 0 lf 1012,6 hPa 0,0 l/m 2 min 0 min 789 W/m 12,6 km/h (3 Bft) 100,00 %
26.06.2017 15:06 24,0 C 28,3 C 30,0 C 52 % 0 lf 1012,6 hPa 0,0 l/m 0 min 0 min 362 W/m 12,6 km/h (3 Bft) 100,00 %
26.06.2017 15:08 24,0 C 30,0 C 31,7 C 51 % 0 lf 1012,5 hPa 0,0 l/m 0 min 0 min 362 W/m 10,5 km/h (2 Bft) 100,00 %
26.06.2017 15:10 24,1 C 30,0 C 32,8 C 52 % 0 lf 1012,5 hPa 0,0 l/m 2 min 0 min 908 W/m 16,7 km/h (3 Bft) 97,87 %
26.06.2017 15:12 24,1 C 30,0 C 33,3 C 52 % 0 lf 1012,6 hPa 0,0 l/m 2 min 0 min 900 W/m 20,9 km/h (4 Bft) 100,00 %
26.06.2017 15:14 24,2 C 29,4 C 32,2 C 50 % 0 lf 1012,6 hPa 0,0 l/m 2 min 0 min 909 W/m 20,9 km/h (4 Bft) 100,00 %
26.06.2017 15:16 24,2 C 27,2 C 28,3 C 50 % 0 lf 1012,6 hPa 0,0 l/m 2 min 0 min 682 W/m 18,8 km/h (3 Bft) 97,83 %
26.06.2017 15:18 24,1 C 26,1 C 26,7 C 49 % 0 lf 1012,6 hPa 0,0 l/m 0 min 0 min 196 W/m 14,6 km/h (3 Bft) 97,87 %
26.06.2017 15:20 24,0 C 27,2 C 28,9 C 50 % 0 lf 1012,6 hPa 0,0 l/m 2 min 0 min 615 W/m 14,6 km/h (3 Bft) 100,00 %
26.06.2017 15:22 23,9 C 27,8 C 30,6 C 51 % 0 lf 1012,6 hPa 0,0 l/m 2 min 0 min 859 W/m 23,0 km/h (4 Bft) 100,00 %
26.06.2017 15:24 23,9 C 27,2 C 30,0 C 51 % 0 lf 1012,6 hPa 0,0 l/m 2 min 0 min 857 W/m 23,0 km/h (4 Bft) 100,00 %
26.06.2017 15:26 23,8 C 27,2 C 29,4 C 51 % 0 lf 1012,6 hPa 0,0 l/m 0 min 0 min 215 W/m 12,6 km/h (3 Bft) 100,00 %
26.06.2017 15:28 23,8 C 26,7 C 29,4 C 51 % 0 lf 1012,5 hPa 0,0 l/m 0 min 0 min 221 W/m 18,8 km/h (3 Bft) 100,00 %
26.06.2017 15:30 23,7 C 26,1 C 27,8 C 51 % 0 lf 1012,6 hPa 0,0 l/m 0 min 0 min 220 W/m 18,8 km/h (3 Bft) 100,00 %
26.06.2017 15:32 23,7 C 25,6 C 27,2 C 51 % 0 lf 1012,5 hPa 0,0 l/m 0 min 0 min 190 W/m 16,7 km/h (3 Bft) 100,00 %
26.06.2017 15:34 23,7 C 25,0 C 26,7 C 51 % 0 lf 1012,5 hPa 0,0 l/m 0 min 0 min 200 W/m 14,6 km/h (3 Bft) 93,62 %
26.06.2017 15:36 23,6 C 25,6 C 27,2 C 50 % 0 lf 1012,5 hPa 0,0 l/m 0 min 0 min 242 W/m 12,6 km/h (3 Bft) 100,00 %
26.06.2017 15:38 23,6 C 27,2 C 30,0 C 52 % 0 lf 1012,4 hPa 0,0 l/m 2 min 0 min 851 W/m 8,4 km/h (2 Bft) 100,00 %
26.06.2017 15:40 23,5 C 27,2 C 30,6 C 51 % 0 lf 1012,4 hPa 0,0 l/m 2 min 0 min 831 W/m 14,6 km/h (3 Bft) 97,83 %
26.06.2017 15:42 23,4 C 28,3 C 31,7 C 51 % 0 lf 1012,3 hPa 0,0 l/m 2 min 0 min 816 W/m 10,5 km/h (2 Bft) 97,87 %
26.06.2017 15:44 23,4 C 28,3 C 31,1 C 51 % 0 lf 1012,2 hPa 0,0 l/m 2 min 0 min 828 W/m 20,9 km/h (4 Bft) 100,00 %
26.06.2017 15:46 23,4 C 28,3 C 30,6 C 52 % 0 lf 1012,3 hPa 0,0 l/m 2 min 0 min 839 W/m 18,8 km/h (3 Bft) 97,87 %
26.06.2017 15:48 23,4 C 28,3 C 31,1 C 53 % 0 lf 1012,3 hPa 0,0 l/m 2 min 0 min 852 W/m 16,7 km/h (3 Bft) 100,00 %
26.06.2017 15:50 23,5 C 28,3 C 31,7 C 52 % 0 lf 1012,3 hPa 0,0 l/m 2 min 0 min 724 W/m 16,7 km/h (3 Bft) 91,49 %
26.06.2017 15:52 23,6 C 28,9 C 32,8 C 52 % 0 lf 1012,3 hPa 0,0 l/m 2 min 0 min 803 W/m 12,6 km/h (3 Bft) 93,48 %
26.06.2017 15:54 23,6 C 28,3 C 31,7 C 51 % 0 lf 1012,2 hPa 0,0 l/m 2 min 0 min 818 W/m 14,6 km/h (3 Bft) 95,74 %
26.06.2017 15:56 23,6 C 28,9 C 31,1 C 51 % 0 lf 1012,2 hPa 0,0 l/m 2 min 0 min 812 W/m 10,5 km/h (2 Bft) 95,74 %
26.06.2017 15:58 23,7 C 28,3 C 32,8 C 51 % 0 lf 1012,2 hPa 0,0 l/m 2 min 0 min 818 W/m 10,5 km/h (2 Bft) 93,62 %
26.06.2017 16:00 23,7 C 28,3 C 33,9 C 52 % 0 lf 1012,2 hPa 0,0 l/m 2 min 0 min 818 W/m 18,8 km/h (3 Bft) 95,74 %
26.06.2017 16:02 23,8 C 27,2 C 32,8 C 51 % 0 lf 1012,2 hPa 0,0 l/m 2 min 0 min 763 W/m 16,7 km/h (3 Bft) 95,74 %
26.06.2017 16:04 23,9 C 27,2 C 32,8 C 52 % 0 lf 1012,2 hPa 0,0 l/m 0 min 0 min 282 W/m 20,9 km/h (4 Bft) 95,65 %
26.06.2017 16:06 24,0 C 27,8 C 33,3 C 51 % 0 lf 1012,2 hPa 0,0 l/m 2 min 0 min 499 W/m 16,7 km/h (3 Bft) 95,74 %
26.06.2017 16:08 24,0 C 27,2 C 31,7 C 50 % 0 lf 1012,3 hPa 0,0 l/m 2 min 0 min 788 W/m 18,8 km/h (3 Bft) 93,62 %
26.06.2017 16:10 24,1 C 26,7 C 31,1 C 50 % 0 lf 1012,3 hPa 0,0 l/m 2 min 0 min 865 W/m 14,6 km/h (3 Bft) 93,62 %
26.06.2017 16:12 24,1 C 26,7 C 31,1 C 50 % 0 lf 1012,3 hPa 0,0 l/m 2 min 0 min 868 W/m 10,5 km/h (2 Bft) 91,49 %
26.06.2017 16:14 24,1 C 26,7 C 32,2 C 49 % 0 lf 1012,2 hPa 0,0 l/m 2 min 0 min 948 W/m 14,6 km/h (3 Bft) 93,48 %
26.06.2017 16:16 24,1 C 26,7 C 32,2 C 49 % 0 lf 1012,2 hPa 0,0 l/m 2 min 0 min 772 W/m 14,6 km/h (3 Bft) 93,62 %
26.06.2017 16:18 24,1 C 26,7 C 32,8 C 50 % 0 lf 1012,2 hPa 0,0 l/m 2 min 0 min 768 W/m 12,6 km/h (3 Bft) 93,62 %
26.06.2017 16:20 24,1 C 26,1 C 33,9 C 50 % 0 lf 1012,2 hPa 0,0 l/m 2 min 0 min 765 W/m 8,4 km/h (2 Bft) 91,49 %
26.06.2017 16:22 24,1 C 26,1 C 35,0 C 50 % 0 lf 1012,3 hPa 0,0 l/m 2 min 0 min 996 W/m 14,6 km/h (3 Bft) 89,36 %
26.06.2017 16:24 24,2 C 25,6 C 34,4 C 50 % 0 lf 1012,3 hPa 0,0 l/m 2 min 0 min 770 W/m 16,7 km/h (3 Bft) 91,49 %
26.06.2017 16:26 24,3 C 26,1 C 35,0 C 49 % 0 lf 1012,3 hPa 0,0 l/m 2 min 0 min 751 W/m 14,6 km/h (3 Bft) 89,13 %
26.06.2017 16:28 24,4 C 26,1 C 36,1 C 50 % 0 lf 1012,3 hPa 0,0 l/m 2 min 0 min 742 W/m 10,5 km/h (2 Bft) 93,62 %
26.06.2017 16:30 24,6 C 26,1 C 36,1 C 49 % 0 lf 1012,3 hPa 0,0 l/m 2 min 0 min 748 W/m 23,0 km/h (4 Bft) 93,62 %
26.06.2017 16:32 24,7 C 26,1 C 35,6 C 48 % 0 lf 1012,3 hPa 0,0 l/m 2 min 0 min 764 W/m 16,7 km/h (3 Bft) 91,67 %
26.06.2017 16:34 24,8 C 26,1 C 35,6 C 48 % 0 lf 1012,2 hPa 0,0 l/m 2 min 0 min 763 W/m 16,7 km/h (3 Bft) 91,49 %
26.06.2017 16:36 24,9 C 26,1 C 35,6 C 48 % 0 lf 1012,2 hPa 0,0 l/m 2 min 0 min 757 W/m 16,7 km/h (3 Bft) 93,62 %
26.06.2017 16:38 24,9 C 26,1 C 34,4 C 47 % 0 lf 1012,2 hPa 0,0 l/m 2 min 0 min 648 W/m 14,6 km/h (3 Bft) 93,48 %
26.06.2017 16:40 25,1 C 26,1 C 35,0 C 47 % 0 lf 1012,2 hPa 0,0 l/m 2 min 0 min 571 W/m 14,6 km/h (3 Bft) 91,49 %
26.06.2017 16:42 25,1 C 26,1 C 35,0 C 47 % 0 lf 1012,2 hPa 0,0 l/m 2 min 0 min 735 W/m 14,6 km/h (3 Bft) 95,83 %
26.06.2017 16:44 25,1 C 26,7 C 34,4 C 47 % 0 lf 1012,2 hPa 0,0 l/m 2 min 0 min 736 W/m 12,6 km/h (3 Bft) 93,62 %
26.06.2017 16:46 25,1 C 26,7 C 36,1 C 49 % 0 lf 1012,2 hPa 0,0 l/m 2 min 0 min 756 W/m 10,5 km/h (2 Bft) 97,87 %
26.06.2017 16:48 25,2 C 26,7 C 36,1 C 47 % 0 lf 1012,2 hPa 0,0 l/m 2 min 0 min 747 W/m 8,4 km/h (2 Bft) 95,74 %
26.06.2017 16:50 25,3 C 26,7 C 36,7 C 48 % 0 lf 1012,2 hPa 0,0 l/m 2 min 0 min 730 W/m 10,5 km/h (2 Bft) 95,74 %
26.06.2017 16:52 25,3 C 26,7 C 33,9 C 47 % 0 lf 1012,2 hPa 0,0 l/m 2 min 0 min 706 W/m 20,9 km/h (4 Bft) 97,87 %
26.06.2017 16:54 25,3 C 26,1 C 32,8 C 47 % 0 lf 1012,2 hPa 0,0 l/m 2 min 0 min 701 W/m 18,8 km/h (3 Bft) 95,65 %
26.06.2017 16:56 25,3 C 26,1 C 31,7 C 46 % 0 lf 1012,1 hPa 0,0 l/m 2 min 0 min 678 W/m 16,7 km/h (3 Bft) 95,74 %
26.06.2017 16:58 25,2 C 26,1 C 31,1 C 46 % 0 lf 1012,1 hPa 0,0 l/m 2 min 0 min 668 W/m 18,8 km/h (3 Bft) 93,62 %
26.06.2017 17:00 25,1 C 26,1 C 31,1 C 46 % 0 lf 1012,1 hPa 0,0 l/m 2 min 0 min 659 W/m 12,6 km/h (3 Bft) 93,62 %
26.06.2017 17:02 25,1 C 26,1 C 32,8 C 47 % 0 lf 1012,1 hPa 0,0 l/m 2 min 0 min 650 W/m 14,6 km/h (3 Bft) 97,87 %
26.06.2017 17:04 25,1 C 26,1 C 33,9 C 47 % 0 lf 1012,0 hPa 0,0 l/m 2 min 0 min 644 W/m 14,6 km/h (3 Bft) 97,87 %
26.06.2017 17:06 25,1 C 26,1 C 34,4 C 47 % 0 lf 1012,0 hPa 0,0 l/m 2 min 0 min 637 W/m 16,7 km/h (3 Bft) 95,74 %
26.06.2017 17:08 25,1 C 25,6 C 32,2 C 47 % 0 lf 1011,9 hPa 0,0 l/m 2 min 0 min 630 W/m 20,9 km/h (4 Bft) 93,48 %
26.06.2017 17:10 25,1 C 26,1 C 30,6 C 47 % 0 lf 1012,0 hPa 0,0 l/m 2 min 0 min 614 W/m 14,6 km/h (3 Bft) 97,87 %
26.06.2017 17:12 25,1 C 26,1 C 30,6 C 47 % 0 lf 1011,9 hPa 0,0 l/m 2 min 0 min 600 W/m 16,7 km/h (3 Bft) 95,74 %
26.06.2017 17:14 25,1 C 26,1 C 30,0 C 48 % 0 lf 1011,9 hPa 0,0 l/m 2 min 0 min 599 W/m 16,7 km/h (3 Bft) 97,87 %
26.06.2017 17:16 25,2 C 26,1 C 28,9 C 46 % 0 lf 1011,8 hPa 0,0 l/m 2 min 0 min 599 W/m 14,6 km/h (3 Bft) 95,74 %
26.06.2017 17:18 25,1 C 26,1 C 27,2 C 46 % 0 lf 1011,9 hPa 0,0 l/m 2 min 0 min 600 W/m 14,6 km/h (3 Bft) 95,65 %
26.06.2017 17:20 25,1 C 25,6 C 26,7 C 46 % 0 lf 1011,8 hPa 0,0 l/m 2 min 0 min 591 W/m 18,8 km/h (3 Bft) 95,74 %
26.06.2017 17:22 25,1 C 25,6 C 26,7 C 46 % 0 lf 1011,8 hPa 0,0 l/m 2 min 0 min 585 W/m 16,7 km/h (3 Bft) 97,87 %
26.06.2017 17:24 25,1 C 26,1 C 26,7 C 47 % 0 lf 1011,6 hPa 0,0 l/m 2 min 0 min 584 W/m 12,6 km/h (3 Bft) 95,74 %
26.06.2017 17:26 25,1 C 26,1 C 26,7 C 46 % 0 lf 1011,8 hPa 0,0 l/m 2 min 0 min 580 W/m 14,6 km/h (3 Bft) 97,87 %
26.06.2017 17:28 25,1 C 26,1 C 25,6 C 46 % 0 lf 1011,7 hPa 0,0 l/m 2 min 0 min 573 W/m 18,8 km/h (3 Bft) 100,00 %
26.06.2017 17:30 25,1 C 25,6 C 24,4 C 45 % 0 lf 1011,8 hPa 0,0 l/m 2 min 0 min 564 W/m 23,0 km/h (4 Bft) 100,00 %
26.06.2017 17:32 25,0 C 25,0 C 23,9 C 45 % 0 lf 1011,9 hPa 0,0 l/m 2 min 0 min 557 W/m 12,6 km/h (3 Bft) 100,00 %
26.06.2017 17:34 24,9 C 25,0 C 23,3 C 45 % 0 lf 1011,8 hPa 0,0 l/m 2 min 0 min 555 W/m 8,4 km/h (2 Bft) 100,00 %
26.06.2017 17:36 24,9 C 25,0 C 22,8 C 45 % 0 lf 1011,8 hPa 0,0 l/m 2 min 0 min 554 W/m 8,4 km/h (2 Bft) 100,00 %
26.06.2017 17:38 24,8 C 25,0 C 23,3 C 46 % 0 lf 1011,7 hPa 0,0 l/m 2 min 0 min 553 W/m 4,2 km/h (1 Bft) 97,87 %
26.06.2017 17:40 24,8 C 25,0 C 23,9 C 47 % 0 lf 1011,7 hPa 0,0 l/m 2 min 0 min 551 W/m 6,3 km/h (2 Bft) 100,00 %
26.06.2017 17:42 24,7 C 25,0 C 24,4 C 46 % 0 lf 1011,6 hPa 0,0 l/m 2 min 0 min 548 W/m 16,7 km/h (3 Bft) 95,65 %
26.06.2017 17:44 24,7 C 25,6 C 24,4 C 47 % 0 lf 1011,8 hPa 0,0 l/m 2 min 0 min 535 W/m 16,7 km/h (3 Bft) 100,00 %
26.06.2017 17:46 24,7 C 25,0 C 24,4 C 47 % 0 lf 1011,7 hPa 0,0 l/m 2 min 0 min 523 W/m 12,6 km/h (3 Bft) 97,87 %
26.06.2017 17:48 24,7 C 25,6 C 24,4 C 47 % 0 lf 1011,7 hPa 0,0 l/m 2 min 0 min 520 W/m 10,5 km/h (2 Bft) 100,00 %
26.06.2017 17:50 24,7 C 25,6 C 23,9 C 46 % 0 lf 1011,8 hPa 0,0 l/m 2 min 0 min 510 W/m 18,8 km/h (3 Bft) 100,00 %
26.06.2017 17:52 24,7 C 25,0 C 23,3 C 46 % 0 lf 1011,8 hPa 0,0 l/m 2 min 0 min 502 W/m 18,8 km/h (3 Bft) 100,00 %
26.06.2017 17:54 24,6 C 25,0 C 22,8 C 46 % 0 lf 1011,8 hPa 0,0 l/m 2 min 0 min 499 W/m 10,5 km/h (2 Bft) 95,65 %
26.06.2017 17:56 24,6 C 25,0 C 22,8 C 46 % 0 lf 1011,6 hPa 0,0 l/m 2 min 0 min 498 W/m 14,6 km/h (3 Bft) 100,00 %
26.06.2017 17:58 24,5 C 25,0 C 23,3 C 46 % 0 lf 1011,6 hPa 0,0 l/m 2 min 0 min 492 W/m 10,5 km/h (2 Bft) 100,00 %
26.06.2017 18:00 24,5 C 25,0 C 23,3 C 46 % 0 lf 1011,6 hPa 0,0 l/m 2 min 0 min 485 W/m 10,5 km/h (2 Bft) 100,00 %
26.06.2017 18:02 24,5 C 25,0 C 23,3 C 47 % 0 lf 1011,7 hPa 0,0 l/m 2 min 0 min 480 W/m 12,6 km/h (3 Bft) 100,00 %
26.06.2017 18:04 24,4 C 25,0 C 23,3 C 46 % 0 lf 1011,8 hPa 0,0 l/m 2 min 0 min 475 W/m 12,6 km/h (3 Bft) 95,74 %
26.06.2017 18:06 24,4 C 25,0 C 23,3 C 47 % 0 lf 1011,7 hPa 0,0 l/m 2 min 0 min 465 W/m 10,5 km/h (2 Bft) 100,00 %
26.06.2017 18:08 24,4 C 25,0 C 23,3 C 47 % 0 lf 1011,7 hPa 0,0 l/m 2 min 0 min 456 W/m 8,4 km/h (2 Bft) 93,62 %
26.06.2017 18:12 24,3 C 25,0 C 22,8 C 46 % 0 lf 1011,7 hPa 0,0 l/m 4 min 0 min 448 W/m 16,7 km/h (3 Bft) 98,88 %
26.06.2017 18:14 24,3 C 25,0 C 22,8 C 46 % 0 lf 1011,6 hPa 0,0 l/m 2 min 0 min 443 W/m 23,0 km/h (4 Bft) 97,83 %
26.06.2017 18:16 24,3 C 24,4 C 22,8 C 46 % 0 lf 1011,6 hPa 0,0 l/m 2 min 0 min 434 W/m 18,8 km/h (3 Bft) 97,87 %
26.06.2017 18:18 24,2 C 24,4 C 22,8 C 46 % 0 lf 1011,5 hPa 0,0 l/m 2 min 0 min 428 W/m 12,6 km/h (3 Bft) 97,87 %
26.06.2017 18:20 24,2 C 24,4 C 22,8 C 46 % 0 lf 1011,6 hPa 0,0 l/m 2 min 0 min 424 W/m 23,0 km/h (4 Bft) 95,74 %
26.06.2017 18:22 24,1 C 24,4 C 22,8 C 46 % 0 lf 1011,5 hPa 0,0 l/m 2 min 0 min 426 W/m 10,5 km/h (2 Bft) 97,87 %
26.06.2017 18:24 24,1 C 24,4 C 22,8 C 47 % 0 lf 1011,4 hPa 0,0 l/m 2 min 0 min 426 W/m 14,6 km/h (3 Bft) 95,65 %
26.06.2017 18:26 24,1 C 24,4 C 22,8 C 46 % 0 lf 1011,5 hPa 0,0 l/m 2 min 0 min 422 W/m 18,8 km/h (3 Bft) 93,62 %
26.06.2017 18:28 24,0 C 23,9 C 22,2 C 46 % 0 lf 1011,5 hPa 0,0 l/m 2 min 0 min 412 W/m 8,4 km/h (2 Bft) 97,87 %
26.06.2017 18:30 23,9 C 23,9 C 22,2 C 46 % 0 lf 1011,4 hPa 0,0 l/m 2 min 0 min 411 W/m 14,6 km/h (3 Bft) 97,87 %
26.06.2017 18:32 23,9 C 23,9 C 22,2 C 46 % 0 lf 1011,4 hPa 0,0 l/m 2 min 0 min 407 W/m 23,0 km/h (4 Bft) 97,87 %
26.06.2017 18:34 23,8 C 23,9 C 22,2 C 46 % 0 lf 1011,5 hPa 0,0 l/m 2 min 0 min 401 W/m 16,7 km/h (3 Bft) 97,87 %
26.06.2017 18:36 23,7 C 23,9 C 22,2 C 47 % 0 lf 1011,5 hPa 0,0 l/m 2 min 0 min 392 W/m 16,7 km/h (3 Bft) 95,65 %
26.06.2017 18:38 23,7 C 23,9 C 22,2 C 46 % 0 lf 1011,5 hPa 0,0 l/m 2 min 0 min 384 W/m 8,4 km/h (2 Bft) 97,87 %
26.06.2017 18:40 23,6 C 23,9 C 22,2 C 47 % 0 lf 1011,5 hPa 0,0 l/m 2 min 0 min 383 W/m 8,4 km/h (2 Bft) 95,74 %
26.06.2017 18:42 23,6 C 23,9 C 22,2 C 47 % 0 lf 1011,5 hPa 0,0 l/m 2 min 0 min 379 W/m 12,6 km/h (3 Bft) 97,87 %
26.06.2017 18:44 23,5 C 23,9 C 22,2 C 47 % 0 lf 1011,5 hPa 0,0 l/m 2 min 0 min 372 W/m 14,6 km/h (3 Bft) 97,87 %
26.06.2017 18:46 23,4 C 23,9 C 22,2 C 47 % 0 lf 1011,5 hPa 0,0 l/m 2 min 0 min 369 W/m 14,6 km/h (3 Bft) 100,00 %
26.06.2017 18:48 23,4 C 23,9 C 21,7 C 48 % 0 lf 1011,5 hPa 0,0 l/m 2 min 0 min 366 W/m 12,6 km/h (3 Bft) 100,00 %
26.06.2017 18:50 23,4 C 23,3 C 21,7 C 47 % 0 lf 1011,5 hPa 0,0 l/m 2 min 0 min 361 W/m 14,6 km/h (3 Bft) 100,00 %
26.06.2017 18:52 23,3 C 23,3 C 21,7 C 48 % 0 lf 1011,5 hPa 0,0 l/m 2 min 0 min 353 W/m 10,5 km/h (2 Bft) 100,00 %
26.06.2017 18:54 23,3 C 23,3 C 21,7 C 48 % 0 lf 1011,5 hPa 0,0 l/m 2 min 0 min 346 W/m 14,6 km/h (3 Bft) 97,87 %
26.06.2017 18:56 23,3 C 23,3 C 21,7 C 48 % 0 lf 1011,5 hPa 0,0 l/m 2 min 0 min 340 W/m 16,7 km/h (3 Bft) 95,74 %
26.06.2017 18:58 23,3 C 23,3 C 21,7 C 48 % 0 lf 1011,5 hPa 0,0 l/m 2 min 0 min 335 W/m 14,6 km/h (3 Bft) 95,74 %
26.06.2017 19:00 23,3 C 23,3 C 21,7 C 50 % 0 lf 1011,5 hPa 0,0 l/m 2 min 0 min 330 W/m 10,5 km/h (2 Bft) 100,00 %
26.06.2017 19:02 23,2 C 23,3 C 21,7 C 48 % 0 lf 1011,6 hPa 0,0 l/m 2 min 0 min 326 W/m 12,6 km/h (3 Bft) 100,00 %
26.06.2017 19:04 23,2 C 23,3 C 21,7 C 48 % 0 lf 1011,5 hPa 0,0 l/m 2 min 0 min 321 W/m 16,7 km/h (3 Bft) 97,87 %
26.06.2017 19:06 23,2 C 23,3 C 21,7 C 48 % 0 lf 1011,4 hPa 0,0 l/m 2 min 0 min 316 W/m 12,6 km/h (3 Bft) 95,74 %
26.06.2017 19:08 23,2 C 23,3 C 21,7 C 48 % 0 lf 1011,5 hPa 0,0 l/m 2 min 0 min 310 W/m 16,7 km/h (3 Bft) 97,87 %
26.06.2017 19:10 23,2 C 23,3 C 21,7 C 48 % 0 lf 1011,4 hPa 0,0 l/m 2 min 0 min 301 W/m 8,4 km/h (2 Bft) 93,62 %
26.06.2017 19:12 23,1 C 23,3 C 21,1 C 50 % 0 lf 1011,4 hPa 0,0 l/m 2 min 0 min 297 W/m 6,3 km/h (2 Bft) 93,48 %
26.06.2017 19:14 23,1 C 23,3 C 21,1 C 48 % 0 lf 1011,4 hPa 0,0 l/m 2 min 0 min 293 W/m 14,6 km/h (3 Bft) 93,62 %
26.06.2017 19:16 23,1 C 23,3 C 21,7 C 49 % 0 lf 1011,4 hPa 0,0 l/m 2 min 0 min 289 W/m 18,8 km/h (3 Bft) 93,62 %
26.06.2017 19:18 23,1 C 23,3 C 21,7 C 49 % 0 lf 1011,5 hPa 0,0 l/m 2 min 0 min 286 W/m 14,6 km/h (3 Bft) 93,62 %
26.06.2017 19:20 23,0 C 22,8 C 21,7 C 49 % 0 lf 1011,4 hPa 0,0 l/m 2 min 0 min 280 W/m 12,6 km/h (3 Bft) 94,83 %
26.06.2017 19:22 23,0 C 22,8 C 21,7 C 49 % 0 lf 1011,4 hPa 0,0 l/m 2 min 0 min 275 W/m 20,9 km/h (4 Bft) 91,67 %
26.06.2017 19:24 23,0 C 22,8 C 21,7 C 50 % 0 lf 1011,4 hPa 0,0 l/m 2 min 0 min 271 W/m 14,6 km/h (3 Bft) 91,30 %
26.06.2017 19:26 22,9 C 22,8 C 21,7 C 50 % 0 lf 1011,4 hPa 0,0 l/m 2 min 0 min 266 W/m 18,8 km/h (3 Bft) 93,62 %
26.06.2017 19:28 22,9 C 22,8 C 21,1 C 49 % 0 lf 1011,4 hPa 0,0 l/m 2 min 0 min 262 W/m 14,6 km/h (3 Bft) 91,49 %
26.06.2017 19:30 22,9 C 22,8 C 21,1 C 50 % 0 lf 1011,4 hPa 0,0 l/m 2 min 0 min 257 W/m 16,7 km/h (3 Bft) 93,62 %
26.06.2017 19:32 22,8 C 22,8 C 21,1 C 50 % 0 lf 1011,4 hPa 0,0 l/m 2 min 0 min 251 W/m 14,6 km/h (3 Bft) 96,00 %
26.06.2017 19:34 22,8 C 22,8 C 21,1 C 50 % 0 lf 1011,4 hPa 0,0 l/m 2 min 0 min 246 W/m 20,9 km/h (4 Bft) 93,48 %
26.06.2017 19:36 22,8 C 22,8 C 21,1 C 50 % 0 lf 1011,4 hPa 0,0 l/m 2 min 0 min 242 W/m 16,7 km/h (3 Bft) 93,62 %
26.06.2017 19:38 22,7 C 22,8 C 21,1 C 50 % 0 lf 1011,4 hPa 0,0 l/m 2 min 0 min 235 W/m 14,6 km/h (3 Bft) 93,62 %
26.06.2017 19:40 22,7 C 22,8 C 21,1 C 50 % 0 lf 1011,3 hPa 0,0 l/m 2 min 0 min 230 W/m 14,6 km/h (3 Bft) 91,49 %
26.06.2017 19:42 22,7 C 22,8 C 21,1 C 50 % 0 lf 1011,4 hPa 0,0 l/m 2 min 0 min 226 W/m 14,6 km/h (3 Bft) 93,62 %
26.06.2017 19:44 22,7 C 22,8 C 21,1 C 51 % 0 lf 1011,3 hPa 0,0 l/m 2 min 0 min 220 W/m 14,6 km/h (3 Bft) 91,49 %
26.06.2017 19:46 22,7 C 22,8 C 21,1 C 51 % 0 lf 1011,3 hPa 0,0 l/m 2 min 0 min 216 W/m 18,8 km/h (3 Bft) 93,48 %
26.06.2017 19:48 22,7 C 22,8 C 21,1 C 50 % 0 lf 1011,4 hPa 0,0 l/m 2 min 0 min 210 W/m 18,8 km/h (3 Bft) 91,49 %
26.06.2017 19:50 22,6 C 22,8 C 21,1 C 50 % 0 lf 1011,3 hPa 0,0 l/m 2 min 0 min 205 W/m 14,6 km/h (3 Bft) 93,62 %
26.06.2017 19:52 22,6 C 22,8 C 21,1 C 51 % 0 lf 1011,3 hPa 0,0 l/m 2 min 0 min 200 W/m 16,7 km/h (3 Bft) 91,49 %
26.06.2017 19:54 22,6 C 22,2 C 21,1 C 51 % 0 lf 1011,4 hPa 0,0 l/m 2 min 0 min 196 W/m 14,6 km/h (3 Bft) 93,62 %
26.06.2017 19:56 22,6 C 22,2 C 21,1 C 50 % 0 lf 1011,3 hPa 0,0 l/m 2 min 0 min 189 W/m 14,6 km/h (3 Bft) 93,62 %
26.06.2017 19:58 22,6 C 22,2 C 21,1 C 51 % 0 lf 1011,3 hPa 0,0 l/m 2 min 0 min 182 W/m 16,7 km/h (3 Bft) 91,30 %
26.06.2017 20:00 22,6 C 22,2 C 21,1 C 51 % 0 lf 1011,3 hPa 0,0 l/m 2 min 0 min 178 W/m 12,6 km/h (3 Bft) 93,62 %
26.06.2017 20:02 22,5 C 22,2 C 21,1 C 50 % 0 lf 1011,3 hPa 0,0 l/m 2 min 0 min 172 W/m 14,6 km/h (3 Bft) 97,87 %
26.06.2017 20:04 22,5 C 22,2 C 20,6 C 50 % 0 lf 1011,3 hPa 0,0 l/m 2 min 0 min 168 W/m 16,7 km/h (3 Bft) 95,74 %
26.06.2017 20:06 22,4 C 22,2 C 20,6 C 50 % 0 lf 1011,3 hPa 0,0 l/m 2 min 0 min 161 W/m 14,6 km/h (3 Bft) 97,87 %
26.06.2017 20:08 22,4 C 22,2 C 20,6 C 51 % 0 lf 1011,3 hPa 0,0 l/m 2 min 0 min 156 W/m 14,6 km/h (3 Bft) 100,00 %
26.06.2017 20:10 22,4 C 22,2 C 20,6 C 51 % 0 lf 1011,3 hPa 0,0 l/m 2 min 0 min 151 W/m 14,6 km/h (3 Bft) 97,87 %
26.06.2017 20:12 22,4 C 22,2 C 20,6 C 51 % 0 lf 1011,2 hPa 0,0 l/m 2 min 0 min 146 W/m 12,6 km/h (3 Bft) 100,00 %
26.06.2017 20:14 22,3 C 22,2 C 20,6 C 51 % 0 lf 1011,2 hPa 0,0 l/m 2 min 0 min 141 W/m 10,5 km/h (2 Bft) 100,00 %
26.06.2017 20:16 22,3 C 22,2 C 20,6 C 51 % 0 lf 1011,2 hPa 0,0 l/m 2 min 0 min 135 W/m 12,6 km/h (3 Bft) 95,74 %
26.06.2017 20:18 22,3 C 22,2 C 20,6 C 51 % 0 lf 1011,2 hPa 0,0 l/m 2 min 0 min 129 W/m 10,5 km/h (2 Bft) 97,87 %
26.06.2017 20:20 22,3 C 22,2 C 20,6 C 51 % 0 lf 1011,2 hPa 0,0 l/m 2 min 0 min 123 W/m 14,6 km/h (3 Bft) 97,83 %
26.06.2017 20:22 22,3 C 22,2 C 20,6 C 51 % 0 lf 1011,2 hPa 0,0 l/m 2 min 0 min 119 W/m 16,7 km/h (3 Bft) 95,74 %
26.06.2017 20:24 22,2 C 22,2 C 20,6 C 52 % 0 lf 1011,1 hPa 0,0 l/m 2 min 0 min 117 W/m 12,6 km/h (3 Bft) 97,87 %
26.06.2017 20:26 22,2 C 22,2 C 20,6 C 52 % 0 lf 1011,1 hPa 0,0 l/m 2 min 0 min 113 W/m 12,6 km/h (3 Bft) 93,62 %
26.06.2017 20:28 22,2 C 22,2 C 20,6 C 52 % 0 lf 1011,1 hPa 0,0 l/m 2 min 0 min 108 W/m 14,6 km/h (3 Bft) 97,87 %
26.06.2017 20:30 22,2 C 21,7 C 20,6 C 52 % 0 lf 1011,1 hPa 0,0 l/m 2 min 0 min 103 W/m 12,6 km/h (3 Bft) 93,62 %
26.06.2017 20:32 22,1 C 21,7 C 20,6 C 52 % 0 lf 1011,0 hPa 0,0 l/m 2 min 0 min 98 W/m 16,7 km/h (3 Bft) 97,83 %
26.06.2017 20:34 22,1 C 21,7 C 20,6 C 52 % 0 lf 1011,0 hPa 0,0 l/m 2 min 0 min 94 W/m 16,7 km/h (3 Bft) 97,87 %
26.06.2017 20:36 22,1 C 21,7 C 20,6 C 52 % 0 lf 1011,0 hPa 0,0 l/m 2 min 0 min 89 W/m 14,6 km/h (3 Bft) 93,62 %
26.06.2017 20:38 22,0 C 21,7 C 20,6 C 53 % 0 lf 1010,9 hPa 0,0 l/m 2 min 0 min 84 W/m 12,6 km/h (3 Bft) 93,62 %
26.06.2017 20:40 22,0 C 21,7 C 20,0 C 53 % 0 lf 1010,9 hPa 0,0 l/m 2 min 0 min 82 W/m 12,6 km/h (3 Bft) 97,87 %
26.06.2017 20:42 21,9 C 21,7 C 20,0 C 53 % 0 lf 1010,9 hPa 0,0 l/m 2 min 0 min 79 W/m 14,6 km/h (3 Bft) 100,00 %
26.06.2017 20:44 21,9 C 21,7 C 20,0 C 53 % 0 lf 1010,9 hPa 0,0 l/m 2 min 0 min 76 W/m 16,7 km/h (3 Bft) 97,83 %
26.06.2017 20:46 21,9 C 21,7 C 20,0 C 53 % 0 lf 1010,9 hPa 0,0 l/m 2 min 0 min 72 W/m 12,6 km/h (3 Bft) 97,87 %
26.06.2017 20:48 21,8 C 21,7 C 20,0 C 53 % 0 lf 1010,9 hPa 0,0 l/m 2 min 0 min 70 W/m 12,6 km/h (3 Bft) 95,74 %
26.06.2017 20:50 21,8 C 21,1 C 20,0 C 53 % 0 lf 1010,9 hPa 0,0 l/m 2 min 0 min 68 W/m 14,6 km/h (3 Bft) 97,87 %
26.06.2017 20:52 21,8 C 21,1 C 20,0 C 53 % 0 lf 1010,9 hPa 0,0 l/m 2 min 0 min 64 W/m 12,6 km/h (3 Bft) 100,00 %
26.06.2017 20:54 21,8 C 21,1 C 20,0 C 54 % 0 lf 1010,9 hPa 0,0 l/m 2 min 0 min 62 W/m 10,5 km/h (2 Bft) 100,00 %
26.06.2017 20:56 21,7 C 21,1 C 20,0 C 54 % 0 lf 1010,8 hPa 0,0 l/m 2 min 0 min 58 W/m 10,5 km/h (2 Bft) 91,30 %
26.06.2017 20:58 21,7 C 21,1 C 20,0 C 53 % 0 lf 1010,9 hPa 0,0 l/m 2 min 0 min 55 W/m 14,6 km/h (3 Bft) 100,00 %
26.06.2017 21:00 21,7 C 21,1 C 20,0 C 54 % 0 lf 1010,9 hPa 0,0 l/m 2 min 0 min 53 W/m 10,5 km/h (2 Bft) 100,00 %
26.06.2017 21:02 21,6 C 21,1 C 19,4 C 53 % 0 lf 1010,9 hPa 0,0 l/m 2 min 0 min 50 W/m 10,5 km/h (2 Bft) 100,00 %
26.06.2017 21:04 21,6 C 21,1 C 19,4 C 53 % 0 lf 1010,9 hPa 0,0 l/m 2 min 0 min 49 W/m 12,6 km/h (3 Bft) 100,00 %
26.06.2017 21:06 21,6 C 21,1 C 19,4 C 53 % 0 lf 1010,8 hPa 0,0 l/m 2 min 0 min 48 W/m 8,4 km/h (2 Bft) 100,00 %
26.06.2017 21:08 21,5 C 21,1 C 19,4 C 54 % 0 lf 1010,9 hPa 0,0 l/m 2 min 0 min 44 W/m 12,6 km/h (3 Bft) 100,00 %
26.06.2017 21:10 21,5 C 20,6 C 19,4 C 54 % 0 lf 1010,9 hPa 0,0 l/m 2 min 0 min 41 W/m 6,3 km/h (2 Bft) 100,00 %
26.06.2017 21:12 21,4 C 20,6 C 19,4 C 54 % 0 lf 1010,9 hPa 0,0 l/m 2 min 0 min 39 W/m 12,6 km/h (3 Bft) 100,00 %
26.06.2017 21:14 21,4 C 20,6 C 19,4 C 54 % 0 lf 1010,9 hPa 0,0 l/m 2 min 0 min 36 W/m 10,5 km/h (2 Bft) 97,87 %
26.06.2017 21:16 21,4 C 20,6 C 19,4 C 54 % 0 lf 1010,9 hPa 0,0 l/m 2 min 0 min 34 W/m 8,4 km/h (2 Bft) 100,00 %
26.06.2017 21:18 21,3 C 20,6 C 19,4 C 54 % 0 lf 1010,9 hPa 0,0 l/m 2 min 0 min 33 W/m 8,4 km/h (2 Bft) 100,00 %
26.06.2017 21:20 21,3 C 20,6 C 19,4 C 54 % 0 lf 1010,9 hPa 0,0 l/m 2 min 0 min 32 W/m 10,5 km/h (2 Bft) 97,83 %
26.06.2017 21:22 21,3 C 20,6 C 19,4 C 54 % 0 lf 1010,9 hPa 0,0 l/m 2 min 0 min 32 W/m 8,4 km/h (2 Bft) 100,00 %
26.06.2017 21:24 21,2 C 20,6 C 18,9 C 55 % 0 lf 1010,9 hPa 0,0 l/m 2 min 0 min 30 W/m 8,4 km/h (2 Bft) 100,00 %
26.06.2017 21:26 21,2 C 20,6 C 18,9 C 55 % 0 lf 1010,9 hPa 0,0 l/m 2 min 0 min 28 W/m 10,5 km/h (2 Bft) 97,87 %
26.06.2017 21:28 21,2 C 20,0 C 18,9 C 54 % 0 lf 1010,9 hPa 0,0 l/m 2 min 0 min 26 W/m 8,4 km/h (2 Bft) 100,00 %
26.06.2017 21:30 21,1 C 20,0 C 18,9 C 55 % 0 lf 1010,9 hPa 0,0 l/m 2 min 0 min 25 W/m 10,5 km/h (2 Bft) 95,65 %
26.06.2017 21:32 21,1 C 20,0 C 18,9 C 55 % 0 lf 1011,0 hPa 0,0 l/m 2 min 0 min 21 W/m 12,6 km/h (3 Bft) 100,00 %
26.06.2017 21:34 21,0 C 20,0 C 18,9 C 55 % 0 lf 1011,0 hPa 0,0 l/m 0 min 0 min 18 W/m 8,4 km/h (2 Bft) 100,00 %
26.06.2017 21:36 20,9 C 20,0 C 18,9 C 55 % 0 lf 1011,1 hPa 0,0 l/m 0 min 0 min 18 W/m 10,5 km/h (2 Bft) 100,00 %
26.06.2017 21:38 20,9 C 20,0 C 18,9 C 55 % 0 lf 1011,0 hPa 0,0 l/m 0 min 0 min 18 W/m 10,5 km/h (2 Bft) 100,00 %
26.06.2017 21:40 20,8 C 20,0 C 18,3 C 55 % 0 lf 1011,0 hPa 0,0 l/m 0 min 0 min 16 W/m 8,4 km/h (2 Bft) 100,00 %
26.06.2017 21:42 20,8 C 19,4 C 18,3 C 55 % 0 lf 1011,1 hPa 0,0 l/m 0 min 0 min 16 W/m 8,4 km/h (2 Bft) 100,00 %
26.06.2017 21:44 20,7 C 19,4 C 18,3 C 56 % 0 lf 1011,1 hPa 0,0 l/m 0 min 0 min 14 W/m 10,5 km/h (2 Bft) 100,00 %
26.06.2017 21:46 20,7 C 19,4 C 18,3 C 56 % 0 lf 1011,2 hPa 0,0 l/m 0 min 0 min 12 W/m 8,4 km/h (2 Bft) 100,00 %
26.06.2017 21:48 20,6 C 19,4 C 18,3 C 56 % 0 lf 1011,2 hPa 0,0 l/m 0 min 0 min 11 W/m 10,5 km/h (2 Bft) 97,87 %
26.06.2017 21:50 20,6 C 19,4 C 18,3 C 56 % 0 lf 1011,2 hPa 0,0 l/m 0 min 0 min 11 W/m 12,6 km/h (3 Bft) 100,00 %
26.06.2017 21:52 20,5 C 19,4 C 18,3 C 56 % 0 lf 1011,2 hPa 0,0 l/m 0 min 0 min 11 W/m 10,5 km/h (2 Bft) 100,00 %
26.06.2017 21:54 20,4 C 19,4 C 18,3 C 57 % 0 lf 1011,3 hPa 0,0 l/m 0 min 0 min 9 W/m 10,5 km/h (2 Bft) 100,00 %
26.06.2017 21:56 20,4 C 18,9 C 17,8 C 57 % 0 lf 1011,3 hPa 0,0 l/m 0 min 0 min 9 W/m 12,6 km/h (3 Bft) 97,87 %
26.06.2017 21:58 20,3 C 18,9 C 17,8 C 57 % 0 lf 1011,2 hPa 0,0 l/m 0 min 0 min 7 W/m 8,4 km/h (2 Bft) 97,87 %
26.06.2017 22:00 20,3 C 18,9 C 17,8 C 57 % 0 lf 1011,3 hPa 0,0 l/m 0 min 0 min 7 W/m 8,4 km/h (2 Bft) 93,62 %
26.06.2017 22:02 20,3 C 18,9 C 17,8 C 57 % 0 lf 1011,3 hPa 0,0 l/m 0 min 0 min 5 W/m 8,4 km/h (2 Bft) 93,62 %
26.06.2017 22:04 20,2 C 18,9 C 17,8 C 57 % 0 lf 1011,3 hPa 0,0 l/m 0 min 0 min 5 W/m 8,4 km/h (2 Bft) 95,74 %
26.06.2017 22:06 20,2 C 18,9 C 17,8 C 58 % 0 lf 1011,4 hPa 0,0 l/m 0 min 0 min 5 W/m 6,3 km/h (2 Bft) 97,83 %
26.06.2017 22:08 20,1 C 18,9 C 17,2 C 58 % 0 lf 1011,5 hPa 0,0 l/m 0 min 0 min 3 W/m 6,3 km/h (2 Bft) 97,87 %
26.06.2017 22:10 20,1 C 18,3 C 17,2 C 58 % 0 lf 1011,5 hPa 0,0 l/m 0 min 0 min 0 W/m 4,2 km/h (1 Bft) 95,74 %
26.06.2017 22:12 20,0 C 18,3 C 17,2 C 58 % 0 lf 1011,4 hPa 0,0 l/m 0 min 0 min 0 W/m 6,3 km/h (2 Bft) 97,87 %
26.06.2017 22:14 20,0 C 18,3 C 16,7 C 58 % 0 lf 1011,4 hPa 0,0 l/m 0 min 0 min 0 W/m 6,3 km/h (2 Bft) 97,87 %
26.06.2017 22:16 19,9 C 18,3 C 16,7 C 58 % 0 lf 1011,5 hPa 0,0 l/m 0 min 0 min 0 W/m 6,3 km/h (2 Bft) 97,87 %
26.06.2017 22:18 19,9 C 17,8 C 16,7 C 58 % 0 lf 1011,5 hPa 0,0 l/m 0 min 0 min 0 W/m 6,3 km/h (2 Bft) 93,48 %
26.06.2017 22:20 19,8 C 17,8 C 16,7 C 58 % 0 lf 1011,5 hPa 0,0 l/m 0 min 0 min 0 W/m 6,3 km/h (2 Bft) 91,49 %
26.06.2017 22:22 19,8 C 17,8 C 16,7 C 58 % 0 lf 1011,5 hPa 0,0 l/m 0 min 0 min 0 W/m 6,3 km/h (2 Bft) 93,62 %
26.06.2017 22:24 19,7 C 17,8 C 16,7 C 59 % 0 lf 1011,5 hPa 0,0 l/m 0 min 0 min 0 W/m 8,4 km/h (2 Bft) 95,74 %
26.06.2017 22:26 19,7 C 17,8 C 16,7 C 59 % 0 lf 1011,5 hPa 0,0 l/m 0 min 0 min 0 W/m 8,4 km/h (2 Bft) 93,62 %
26.06.2017 22:28 19,6 C 17,8 C 16,7 C 59 % 0 lf 1011,5 hPa 0,0 l/m 0 min 0 min 0 W/m 8,4 km/h (2 Bft) 93,62 %
26.06.2017 22:30 19,6 C 17,8 C 16,7 C 59 % 0 lf 1011,5 hPa 0,0 l/m 0 min 0 min 0 W/m 10,5 km/h (2 Bft) 91,30 %
26.06.2017 22:32 19,5 C 17,8 C 16,7 C 59 % 0 lf 1011,5 hPa 0,0 l/m 0 min 0 min 0 W/m 6,3 km/h (2 Bft) 93,62 %
26.06.2017 22:34 19,4 C 17,8 C 16,7 C 60 % 0 lf 1011,5 hPa 0,0 l/m 0 min 0 min 0 W/m 8,4 km/h (2 Bft) 91,49 %
26.06.2017 22:37 19,3 C 17,8 C 16,7 C 60 % 0 lf 1011,6 hPa 0,0 l/m 0 min 0 min 0 W/m 8,4 km/h (2 Bft) 91,43 %
26.06.2017 22:38 19,3 C 17,8 C 16,7 C 60 % 0 lf 1011,6 hPa 0,0 l/m 0 min 0 min 0 W/m 6,3 km/h (2 Bft) 87,50 %
26.06.2017 22:40 19,2 C 17,8 C 16,1 C 60 % 0 lf 1011,6 hPa 0,0 l/m 0 min 0 min 0 W/m 6,3 km/h (2 Bft) 91,49 %
26.06.2017 22:42 19,2 C 17,8 C 16,1 C 60 % 0 lf 1011,6 hPa 0,0 l/m 0 min 0 min 0 W/m 4,2 km/h (1 Bft) 91,30 %
26.06.2017 22:44 19,2 C 17,2 C 16,1 C 60 % 0 lf 1011,6 hPa 0,0 l/m 0 min 0 min 0 W/m 4,2 km/h (1 Bft) 93,62 %
26.06.2017 22:46 19,1 C 17,2 C 16,1 C 60 % 0 lf 1011,6 hPa 0,0 l/m 0 min 0 min 0 W/m 6,3 km/h (2 Bft) 91,49 %
26.06.2017 22:48 19,1 C 17,2 C 16,1 C 61 % 0 lf 1011,6 hPa 0,0 l/m 0 min 0 min 0 W/m 6,3 km/h (2 Bft) 91,49 %
26.06.2017 22:50 19,1 C 17,2 C 16,1 C 61 % 0 lf 1011,7 hPa 0,0 l/m 0 min 0 min 0 W/m 6,3 km/h (2 Bft) 95,74 %
26.06.2017 22:52 19,0 C 17,2 C 15,6 C 61 % 0 lf 1011,6 hPa 0,0 l/m 0 min 0 min 0 W/m 6,3 km/h (2 Bft) 93,48 %
26.06.2017 22:54 18,9 C 17,2 C 15,6 C 61 % 0 lf 1011,7 hPa 0,0 l/m 0 min 0 min 2 W/m 4,2 km/h (1 Bft) 93,62 %
26.06.2017 22:56 18,9 C 17,2 C 15,6 C 61 % 0 lf 1011,8 hPa 0,0 l/m 0 min 0 min 0 W/m 4,2 km/h (1 Bft) 91,49 %
26.06.2017 22:58 18,8 C 16,7 C 15,6 C 61 % 0 lf 1011,7 hPa 0,0 l/m 0 min 0 min 2 W/m 4,2 km/h (1 Bft) 95,74 %
26.06.2017 23:00 18,8 C 16,7 C 15,6 C 62 % 0 lf 1011,7 hPa 0,0 l/m 0 min 0 min 4 W/m 4,2 km/h (1 Bft) 97,87 %
26.06.2017 23:02 18,8 C 16,7 C 15,6 C 62 % 0 lf 1011,7 hPa 0,0 l/m 0 min 0 min 4 W/m 6,3 km/h (2 Bft) 95,74 %
26.06.2017 23:04 18,7 C 16,7 C 15,0 C 62 % 0 lf 1011,8 hPa 0,0 l/m 0 min 0 min 3 W/m 6,3 km/h (2 Bft) 95,65 %
26.06.2017 23:06 18,7 C 16,7 C 15,0 C 62 % 0 lf 1011,8 hPa 0,0 l/m 0 min 0 min 0 W/m 6,3 km/h (2 Bft) 95,74 %
26.06.2017 23:08 18,6 C 16,7 C 15,0 C 62 % 0 lf 1011,8 hPa 0,0 l/m 0 min 0 min 0 W/m 8,4 km/h (2 Bft) 97,87 %
26.06.2017 23:10 18,6 C 16,7 C 15,6 C 62 % 0 lf 1011,8 hPa 0,0 l/m 0 min 0 min 0 W/m 8,4 km/h (2 Bft) 93,62 %
26.06.2017 23:12 18,5 C 16,7 C 15,6 C 63 % 0 lf 1011,8 hPa 0,0 l/m 0 min 0 min 0 W/m 8,4 km/h (2 Bft) 95,74 %
26.06.2017 23:14 18,4 C 16,7 C 15,6 C 63 % 0 lf 1011,8 hPa 0,0 l/m 0 min 0 min 0 W/m 8,4 km/h (2 Bft) 95,74 %
26.06.2017 23:16 18,4 C 16,7 C 15,6 C 63 % 0 lf 1011,9 hPa 0,0 l/m 0 min 0 min 0 W/m 6,3 km/h (2 Bft) 93,48 %
26.06.2017 23:18 18,3 C 16,7 C 15,6 C 63 % 0 lf 1012,0 hPa 0,0 l/m 0 min 0 min 0 W/m 8,4 km/h (2 Bft) 95,74 %
26.06.2017 23:20 18,3 C 16,7 C 15,6 C 63 % 0 lf 1011,9 hPa 0,0 l/m 0 min 0 min 0 W/m 6,3 km/h (2 Bft) 97,87 %
26.06.2017 23:22 18,2 C 16,7 C 15,6 C 63 % 0 lf 1011,9 hPa 0,0 l/m 0 min 0 min 0 W/m 6,3 km/h (2 Bft) 93,62 %
26.06.2017 23:24 18,2 C 16,7 C 15,0 C 64 % 0 lf 1012,0 hPa 0,0 l/m 0 min 0 min 0 W/m 6,3 km/h (2 Bft) 97,87 %
26.06.2017 23:26 18,1 C 16,7 C 15,0 C 64 % 0 lf 1011,9 hPa 0,0 l/m 0 min 0 min 0 W/m 8,4 km/h (2 Bft) 95,74 %
26.06.2017 23:28 18,1 C 16,7 C 15,0 C 64 % 0 lf 1011,9 hPa 0,0 l/m 0 min 0 min 0 W/m 6,3 km/h (2 Bft) 97,83 %
26.06.2017 23:30 18,1 C 16,7 C 15,0 C 64 % 0 lf 1011,9 hPa 0,0 l/m 0 min 0 min 0 W/m 8,4 km/h (2 Bft) 97,87 %
26.06.2017 23:32 18,0 C 16,7 C 15,0 C 64 % 0 lf 1011,8 hPa 0,0 l/m 0 min 0 min 0 W/m 10,5 km/h (2 Bft) 97,92 %
26.06.2017 23:34 17,9 C 16,7 C 15,0 C 65 % 0 lf 1011,8 hPa 0,0 l/m 0 min 0 min 0 W/m 10,5 km/h (2 Bft) 100,00 %
26.06.2017 23:36 17,9 C 16,7 C 15,6 C 65 % 0 lf 1011,8 hPa 0,0 l/m 0 min 0 min 0 W/m 10,5 km/h (2 Bft) 97,87 %
26.06.2017 23:38 17,8 C 16,7 C 15,6 C 65 % 0 lf 1011,8 hPa 0,0 l/m 0 min 0 min 0 W/m 10,5 km/h (2 Bft) 100,00 %
26.06.2017 23:40 17,8 C 16,7 C 15,6 C 66 % 0 lf 1011,9 hPa 0,0 l/m 0 min 0 min 0 W/m 8,4 km/h (2 Bft) 100,00 %
26.06.2017 23:42 17,7 C 16,7 C 15,6 C 66 % 0 lf 1011,8 hPa 0,0 l/m 0 min 0 min 0 W/m 10,5 km/h (2 Bft) 100,00 %
26.06.2017 23:44 17,7 C 16,7 C 15,6 C 66 % 0 lf 1011,8 hPa 0,0 l/m 0 min 0 min 0 W/m 8,4 km/h (2 Bft) 100,00 %
26.06.2017 23:46 17,6 C 16,7 C 15,6 C 66 % 0 lf 1011,9 hPa 0,0 l/m 0 min 0 min 0 W/m 6,3 km/h (2 Bft) 97,83 %
26.06.2017 23:48 17,6 C 16,7 C 15,6 C 67 % 0 lf 1011,8 hPa 0,0 l/m 0 min 0 min 0 W/m 10,5 km/h (2 Bft) 100,00 %
26.06.2017 23:50 17,5 C 16,7 C 15,6 C 67 % 0 lf 1011,8 hPa 0,0 l/m 0 min 0 min 0 W/m 8,4 km/h (2 Bft) 97,87 %
26.06.2017 23:52 17,4 C 16,7 C 15,6 C 67 % 0 lf 1011,8 hPa 0,0 l/m 0 min 0 min 0 W/m 8,4 km/h (2 Bft) 100,00 %
26.06.2017 23:54 17,4 C 16,7 C 15,0 C 67 % 0 lf 1011,7 hPa 0,0 l/m 0 min 0 min 0 W/m 8,4 km/h (2 Bft) 100,00 %
26.06.2017 23:56 17,4 C 16,1 C 15,0 C 67 % 0 lf 1011,7 hPa 0,0 l/m 0 min 0 min 0 W/m 10,5 km/h (2 Bft) 100,00 %
26.06.2017 23:58 17,3 C 16,1 C 15,0 C 68 % 0 lf 1011,6 hPa 0,0 l/m 0 min 0 min 0 W/m 10,5 km/h (2 Bft) 97,83 %
_ Min-Zeit 02:30 00:46 02:02 17:30 00:00 20:56 - - - - 17:38 04:05
Minimum _ 16,5 C 16,1 C 14,4 C 45 % 0 lf 1010,8 hPa - - - - 4,2 km/h (1 Bft) 45,61 %
_ Max-Zeit 16:50 11:08 16:50 09:08 08:52 10:20 00:00 12:10 08:44 12:56 04:28 00:02
Maximum _ 25,3 C 33,9 C 36,7 C 90 % 15 lf 1012,8 hPa 0,0 l/m 4 min 2 min 1160 W/m 29,3 km/h
W-SW (5 Bft)
100,00 %
Durchschnitt _ 20,3 C 21,9 C 21,1 C 68 % 0 lf 1011,8 hPa #0,0 l/m #9:52 h #18 min. 363 W/m 14,8 km/h (3 Bft) 96,45 %
© 2017 W. Hausmann